Wetterdaten: Sonntag, 24.02.2019
Datum Zeit Temp. Aussen Temp. o. S. +5cm Feuchte Auss Luftdruck Regen Sonnenschein Regendauer Solar Windben Empfang
24.02.2019 00:00 5,7 C 5,0 C 4,4 C 62 % 1034,9 hPa 0,0 l/m 0 min 0 min 0 W/m 22,5 km/h (4 Bft) 93,62 %
24.02.2019 00:02 5,7 C 5,0 C 4,4 C 62 % 1034,9 hPa 0,0 l/m 0 min 0 min 0 W/m 22,5 km/h (4 Bft) 97,06 %
24.02.2019 00:04 5,7 C 5,0 C 4,4 C 62 % 1034,9 hPa 0,0 l/m 0 min 0 min 0 W/m 22,5 km/h (4 Bft) 95,74 %
24.02.2019 00:08 5,7 C 5,0 C 4,4 C 62 % 1035,0 hPa 0,0 l/m 0 min 0 min 0 W/m 16,1 km/h (3 Bft) 94,62 %
24.02.2019 00:10 5,7 C 5,0 C 3,9 C 62 % 1034,9 hPa 0,0 l/m 0 min 0 min 0 W/m 19,3 km/h (3 Bft) 95,74 %
24.02.2019 00:12 5,7 C 5,0 C 3,9 C 62 % 1034,9 hPa 0,0 l/m 0 min 0 min 0 W/m 12,9 km/h (3 Bft) 93,62 %
24.02.2019 00:14 5,7 C 5,0 C 3,9 C 62 % 1035,1 hPa 0,0 l/m 0 min 0 min 0 W/m 12,9 km/h (3 Bft) 93,62 %
24.02.2019 00:16 5,6 C 5,0 C 3,9 C 62 % 1035,1 hPa 0,0 l/m 0 min 0 min 0 W/m 16,1 km/h (3 Bft) 95,74 %
24.02.2019 00:18 5,6 C 5,0 C 3,9 C 62 % 1035,1 hPa 0,0 l/m 0 min 0 min 0 W/m 12,9 km/h (3 Bft) 93,48 %
24.02.2019 00:20 5,6 C 5,0 C 3,9 C 62 % 1035,1 hPa 0,0 l/m 0 min 0 min 0 W/m 16,1 km/h (3 Bft) 91,53 %
24.02.2019 00:22 5,6 C 5,0 C 3,9 C 63 % 1035,1 hPa 0,0 l/m 0 min 0 min 0 W/m 12,9 km/h (3 Bft) 94,29 %
24.02.2019 00:24 5,6 C 4,4 C 3,9 C 62 % 1035,1 hPa 0,0 l/m 0 min 0 min 0 W/m 12,9 km/h (3 Bft) 91,49 %
24.02.2019 00:26 5,5 C 4,4 C 3,9 C 62 % 1035,0 hPa 0,0 l/m 0 min 0 min 0 W/m 12,9 km/h (3 Bft) 95,74 %
24.02.2019 00:28 5,5 C 5,0 C 3,9 C 62 % 1035,1 hPa 0,0 l/m 0 min 0 min 0 W/m 16,1 km/h (3 Bft) 93,62 %
24.02.2019 00:30 5,4 C 4,4 C 3,9 C 62 % 1035,1 hPa 0,0 l/m 0 min 0 min 0 W/m 12,9 km/h (3 Bft) 93,48 %
24.02.2019 00:32 5,4 C 4,4 C 3,9 C 62 % 1035,0 hPa 0,0 l/m 0 min 0 min 0 W/m 16,1 km/h (3 Bft) 93,62 %
24.02.2019 00:34 5,4 C 4,4 C 3,9 C 63 % 1035,0 hPa 0,0 l/m 0 min 0 min 0 W/m 12,9 km/h (3 Bft) 93,62 %
24.02.2019 00:36 5,4 C 4,4 C 3,9 C 63 % 1035,0 hPa 0,0 l/m 0 min 0 min 0 W/m 9,7 km/h (2 Bft) 94,92 %
24.02.2019 00:38 5,4 C 4,4 C 3,9 C 63 % 1034,9 hPa 0,0 l/m 0 min 0 min 0 W/m 16,1 km/h (3 Bft) 97,83 %
24.02.2019 00:40 5,3 C 4,4 C 3,9 C 63 % 1035,0 hPa 0,0 l/m 0 min 0 min 0 W/m 9,7 km/h (2 Bft) 94,29 %
24.02.2019 00:42 5,3 C 4,4 C 3,3 C 63 % 1035,1 hPa 0,0 l/m 0 min 0 min 0 W/m 9,7 km/h (2 Bft) 95,74 %
24.02.2019 00:44 5,3 C 4,4 C 3,3 C 64 % 1035,1 hPa 0,0 l/m 0 min 0 min 0 W/m 6,4 km/h (2 Bft) 95,74 %
24.02.2019 00:46 5,2 C 4,4 C 3,3 C 64 % 1035,0 hPa 0,0 l/m 0 min 0 min 0 W/m 9,7 km/h (2 Bft) 97,87 %
24.02.2019 00:48 5,2 C 4,4 C 3,3 C 64 % 1034,9 hPa 0,0 l/m 0 min 0 min 0 W/m 6,4 km/h (2 Bft) 97,87 %
24.02.2019 00:50 5,2 C 4,4 C 3,3 C 64 % 1035,0 hPa 0,0 l/m 0 min 0 min 0 W/m 9,7 km/h (2 Bft) 95,74 %
24.02.2019 00:52 5,2 C 3,9 C 3,3 C 64 % 1035,1 hPa 0,0 l/m 0 min 0 min 0 W/m 6,4 km/h (2 Bft) 97,83 %
24.02.2019 00:54 5,1 C 3,9 C 3,3 C 64 % 1035,1 hPa 0,0 l/m 0 min 0 min 0 W/m 9,7 km/h (2 Bft) 95,74 %
24.02.2019 00:56 5,1 C 3,9 C 3,3 C 64 % 1035,2 hPa 0,0 l/m 0 min 0 min 0 W/m 9,7 km/h (2 Bft) 97,87 %
24.02.2019 00:58 5,1 C 4,4 C 3,3 C 64 % 1035,2 hPa 0,0 l/m 0 min 0 min 0 W/m 9,7 km/h (2 Bft) 97,73 %
24.02.2019 01:00 5,0 C 3,9 C 3,3 C 65 % 1035,2 hPa 0,0 l/m 0 min 0 min 0 W/m 9,7 km/h (2 Bft) 97,87 %
24.02.2019 01:02 5,0 C 3,9 C 3,3 C 64 % 1035,2 hPa 0,0 l/m 0 min 0 min 0 W/m 12,9 km/h (3 Bft) 95,65 %
24.02.2019 01:04 4,9 C 3,9 C 3,3 C 65 % 1035,2 hPa 0,0 l/m 0 min 0 min 0 W/m 3,2 km/h (1 Bft) 95,74 %
24.02.2019 01:06 4,9 C 3,9 C 3,3 C 65 % 1035,2 hPa 0,0 l/m 0 min 0 min 0 W/m 6,4 km/h (2 Bft) 100,00 %
24.02.2019 01:08 4,9 C 3,9 C 3,3 C 65 % 1035,3 hPa 0,0 l/m 0 min 0 min 0 W/m 6,4 km/h (2 Bft) 100,00 %
24.02.2019 01:10 4,9 C 3,9 C 3,3 C 65 % 1035,3 hPa 0,0 l/m 0 min 0 min 0 W/m 3,2 km/h (1 Bft) 100,00 %
24.02.2019 01:12 4,8 C 3,9 C 3,3 C 65 % 1035,3 hPa 0,0 l/m 0 min 0 min 0 W/m 9,7 km/h (2 Bft) 100,00 %
24.02.2019 01:14 4,8 C 3,9 C 3,3 C 65 % 1035,2 hPa 0,0 l/m 0 min 0 min 0 W/m 6,4 km/h (2 Bft) 100,00 %
24.02.2019 01:16 4,8 C 3,9 C 2,8 C 65 % 1035,2 hPa 0,0 l/m 0 min 0 min 0 W/m 6,4 km/h (2 Bft) 100,00 %
24.02.2019 01:18 4,8 C 3,9 C 3,3 C 65 % 1035,2 hPa 0,0 l/m 0 min 0 min 0 W/m 9,7 km/h (2 Bft) 100,00 %
24.02.2019 01:20 4,7 C 3,9 C 2,8 C 65 % 1035,2 hPa 0,0 l/m 0 min 0 min 0 W/m 9,7 km/h (2 Bft) 100,00 %
24.02.2019 01:22 4,7 C 3,9 C 3,3 C 65 % 1035,1 hPa 0,0 l/m 0 min 0 min 0 W/m 9,7 km/h (2 Bft) 100,00 %
24.02.2019 01:24 4,7 C 3,9 C 3,3 C 65 % 1035,1 hPa 0,0 l/m 0 min 0 min 0 W/m 9,7 km/h (2 Bft) 97,87 %
24.02.2019 01:26 4,7 C 3,9 C 3,3 C 65 % 1035,2 hPa 0,0 l/m 0 min 0 min 0 W/m 12,9 km/h (3 Bft) 100,00 %
24.02.2019 01:28 4,6 C 3,9 C 3,3 C 65 % 1035,2 hPa 0,0 l/m 0 min 0 min 0 W/m 9,7 km/h (2 Bft) 100,00 %
24.02.2019 01:30 4,6 C 3,9 C 3,3 C 65 % 1035,2 hPa 0,0 l/m 0 min 0 min 0 W/m 16,1 km/h (3 Bft) 100,00 %
24.02.2019 01:32 4,6 C 3,9 C 3,3 C 65 % 1035,2 hPa 0,0 l/m 0 min 0 min 0 W/m 16,1 km/h (3 Bft) 100,00 %
24.02.2019 01:34 4,6 C 3,9 C 3,3 C 65 % 1035,0 hPa 0,0 l/m 0 min 0 min 0 W/m 6,4 km/h (2 Bft) 97,87 %
24.02.2019 01:36 4,6 C 3,9 C 3,3 C 65 % 1035,1 hPa 0,0 l/m 0 min 0 min 0 W/m 19,3 km/h (3 Bft) 100,00 %
24.02.2019 01:38 4,5 C 3,9 C 2,8 C 65 % 1035,0 hPa 0,0 l/m 0 min 0 min 0 W/m 19,3 km/h (3 Bft) 100,00 %
24.02.2019 01:40 4,5 C 3,9 C 2,8 C 66 % 1034,9 hPa 0,0 l/m 0 min 0 min 0 W/m 12,9 km/h (3 Bft) 100,00 %
24.02.2019 01:42 4,5 C 3,9 C 2,8 C 66 % 1034,9 hPa 0,0 l/m 0 min 0 min 0 W/m 16,1 km/h (3 Bft) 100,00 %
24.02.2019 01:44 4,5 C 3,9 C 3,3 C 66 % 1034,9 hPa 0,0 l/m 0 min 0 min 0 W/m 19,3 km/h (3 Bft) 100,00 %
24.02.2019 01:46 4,4 C 3,9 C 2,8 C 66 % 1034,9 hPa 0,0 l/m 0 min 0 min 0 W/m 12,9 km/h (3 Bft) 95,74 %
24.02.2019 01:48 4,4 C 3,9 C 2,8 C 66 % 1034,9 hPa 0,0 l/m 0 min 0 min 0 W/m 16,1 km/h (3 Bft) 100,00 %
24.02.2019 01:50 4,4 C 3,9 C 2,8 C 66 % 1034,8 hPa 0,0 l/m 0 min 0 min 0 W/m 22,5 km/h (4 Bft) 100,00 %
24.02.2019 01:52 4,4 C 3,9 C 2,8 C 66 % 1034,9 hPa 0,0 l/m 0 min 0 min 0 W/m 16,1 km/h (3 Bft) 100,00 %
24.02.2019 01:54 4,4 C 3,9 C 2,8 C 66 % 1034,9 hPa 0,0 l/m 0 min 0 min 0 W/m 12,9 km/h (3 Bft) 100,00 %
24.02.2019 01:56 4,4 C 3,9 C 2,8 C 66 % 1034,8 hPa 0,0 l/m 0 min 0 min 0 W/m 16,1 km/h (3 Bft) 100,00 %
24.02.2019 01:58 4,4 C 3,9 C 2,8 C 66 % 1034,8 hPa 0,0 l/m 0 min 0 min 0 W/m 16,1 km/h (3 Bft) 100,00 %
24.02.2019 02:00 4,3 C 3,9 C 2,8 C 66 % 1034,7 hPa 0,0 l/m 0 min 0 min 0 W/m 16,1 km/h (3 Bft) 100,00 %
24.02.2019 02:02 4,3 C 3,9 C 2,8 C 66 % 1034,8 hPa 0,0 l/m 0 min 0 min 0 W/m 12,9 km/h (3 Bft) 100,00 %
24.02.2019 02:04 4,3 C 3,9 C 2,8 C 66 % 1034,8 hPa 0,0 l/m 0 min 0 min 0 W/m 16,1 km/h (3 Bft) 100,00 %
24.02.2019 02:06 4,3 C 3,9 C 2,8 C 66 % 1034,8 hPa 0,0 l/m 0 min 0 min 0 W/m 9,7 km/h (2 Bft) 100,00 %
24.02.2019 02:08 4,3 C 3,3 C 2,8 C 66 % 1034,8 hPa 0,0 l/m 0 min 0 min 0 W/m 9,7 km/h (2 Bft) 100,00 %
24.02.2019 02:10 4,3 C 3,3 C 2,8 C 66 % 1034,8 hPa 0,0 l/m 0 min 0 min 0 W/m 9,7 km/h (2 Bft) 100,00 %
24.02.2019 02:12 4,3 C 3,3 C 2,8 C 66 % 1034,9 hPa 0,0 l/m 0 min 0 min 0 W/m 9,7 km/h (2 Bft) 100,00 %
24.02.2019 02:14 4,3 C 3,3 C 2,8 C 66 % 1034,8 hPa 0,0 l/m 0 min 0 min 0 W/m 9,7 km/h (2 Bft) 100,00 %
24.02.2019 02:16 4,2 C 3,3 C 2,8 C 66 % 1034,8 hPa 0,0 l/m 0 min 0 min 0 W/m 12,9 km/h (3 Bft) 97,87 %
24.02.2019 02:18 4,2 C 3,3 C 2,8 C 66 % 1034,8 hPa 0,0 l/m 0 min 0 min 0 W/m 12,9 km/h (3 Bft) 100,00 %
24.02.2019 02:20 4,2 C 3,3 C 2,8 C 66 % 1034,8 hPa 0,0 l/m 0 min 0 min 0 W/m 9,7 km/h (2 Bft) 100,00 %
24.02.2019 02:22 4,2 C 3,3 C 2,8 C 66 % 1034,8 hPa 0,0 l/m 0 min 0 min 0 W/m 6,4 km/h (2 Bft) 100,00 %
24.02.2019 02:24 4,2 C 3,3 C 2,8 C 66 % 1034,7 hPa 0,0 l/m 0 min 0 min 0 W/m 6,4 km/h (2 Bft) 100,00 %
24.02.2019 02:26 4,2 C 3,3 C 2,8 C 66 % 1034,8 hPa 0,0 l/m 0 min 0 min 0 W/m 6,4 km/h (2 Bft) 100,00 %
24.02.2019 02:28 4,2 C 3,3 C 2,8 C 66 % 1034,8 hPa 0,0 l/m 0 min 0 min 0 W/m 9,7 km/h (2 Bft) 100,00 %
24.02.2019 02:30 4,1 C 3,3 C 2,2 C 66 % 1034,8 hPa 0,0 l/m 0 min 0 min 0 W/m 3,2 km/h (1 Bft) 97,87 %
24.02.2019 02:32 4,1 C 3,3 C 2,2 C 66 % 1034,8 hPa 0,0 l/m 0 min 0 min 0 W/m 9,7 km/h (2 Bft) 100,00 %
24.02.2019 02:34 4,1 C 3,3 C 2,2 C 66 % 1034,8 hPa 0,0 l/m 0 min 0 min 0 W/m 9,7 km/h (2 Bft) 97,83 %
24.02.2019 02:36 4,1 C 3,3 C 2,2 C 66 % 1034,8 hPa 0,0 l/m 0 min 0 min 0 W/m 9,7 km/h (2 Bft) 100,00 %
24.02.2019 02:38 4,1 C 3,3 C 2,2 C 66 % 1034,9 hPa 0,0 l/m 0 min 0 min 0 W/m 9,7 km/h (2 Bft) 97,92 %
24.02.2019 02:40 4,1 C 3,3 C 2,2 C 66 % 1034,9 hPa 0,0 l/m 0 min 0 min 0 W/m 9,7 km/h (2 Bft) 100,00 %
24.02.2019 02:42 4,0 C 3,3 C 2,2 C 66 % 1034,8 hPa 0,0 l/m 0 min 0 min 0 W/m 9,7 km/h (2 Bft) 97,87 %
24.02.2019 02:44 4,0 C 3,3 C 2,2 C 66 % 1034,8 hPa 0,0 l/m 0 min 0 min 0 W/m 9,7 km/h (2 Bft) 97,87 %
24.02.2019 02:46 4,0 C 3,3 C 2,2 C 66 % 1034,8 hPa 0,0 l/m 0 min 0 min 0 W/m 9,7 km/h (2 Bft) 95,74 %
24.02.2019 02:48 3,9 C 3,3 C 2,2 C 66 % 1034,8 hPa 0,0 l/m 0 min 0 min 0 W/m 6,4 km/h (2 Bft) 97,83 %
24.02.2019 02:50 3,9 C 3,3 C 2,2 C 66 % 1034,7 hPa 0,0 l/m 0 min 0 min 0 W/m 9,7 km/h (2 Bft) 95,74 %
24.02.2019 02:52 3,9 C 3,3 C 2,8 C 66 % 1034,7 hPa 0,0 l/m 0 min 0 min 0 W/m 9,7 km/h (2 Bft) 95,74 %
24.02.2019 02:54 3,9 C 3,3 C 2,8 C 66 % 1034,7 hPa 0,0 l/m 0 min 0 min 0 W/m 6,4 km/h (2 Bft) 97,87 %
24.02.2019 02:56 3,9 C 3,3 C 2,8 C 66 % 1034,7 hPa 0,0 l/m 0 min 0 min 0 W/m 12,9 km/h (3 Bft) 95,74 %
24.02.2019 02:58 3,9 C 3,3 C 2,8 C 66 % 1034,7 hPa 0,0 l/m 0 min 0 min 0 W/m 9,7 km/h (2 Bft) 93,62 %
24.02.2019 03:00 3,9 C 3,3 C 2,8 C 66 % 1034,6 hPa 0,0 l/m 0 min 0 min 0 W/m 9,7 km/h (2 Bft) 93,48 %
24.02.2019 03:02 3,9 C 3,3 C 2,8 C 66 % 1034,7 hPa 0,0 l/m 0 min 0 min 0 W/m 12,9 km/h (3 Bft) 95,74 %
24.02.2019 03:04 3,9 C 3,3 C 2,8 C 66 % 1034,6 hPa 0,0 l/m 0 min 0 min 0 W/m 12,9 km/h (3 Bft) 95,74 %
24.02.2019 03:06 3,9 C 3,3 C 2,8 C 66 % 1034,6 hPa 0,0 l/m 0 min 0 min 0 W/m 6,4 km/h (2 Bft) 96,61 %
24.02.2019 03:08 3,9 C 3,3 C 2,8 C 66 % 1034,6 hPa 0,0 l/m 0 min 0 min 0 W/m 16,1 km/h (3 Bft) 94,29 %
24.02.2019 03:10 3,9 C 3,3 C 2,8 C 65 % 1034,6 hPa 0,0 l/m 0 min 0 min 0 W/m 16,1 km/h (3 Bft) 95,74 %
24.02.2019 03:12 3,9 C 3,3 C 2,8 C 65 % 1034,6 hPa 0,0 l/m 0 min 0 min 0 W/m 16,1 km/h (3 Bft) 95,65 %
24.02.2019 03:14 3,9 C 3,3 C 2,8 C 65 % 1034,6 hPa 0,0 l/m 0 min 0 min 0 W/m 22,5 km/h (4 Bft) 95,74 %
24.02.2019 03:16 3,9 C 3,3 C 2,8 C 65 % 1034,6 hPa 0,0 l/m 0 min 0 min 0 W/m 12,9 km/h (3 Bft) 91,49 %
24.02.2019 03:18 3,9 C 3,3 C 2,8 C 65 % 1034,5 hPa 0,0 l/m 0 min 0 min 0 W/m 16,1 km/h (3 Bft) 95,74 %
24.02.2019 03:20 3,9 C 3,3 C 2,8 C 65 % 1034,5 hPa 0,0 l/m 0 min 0 min 0 W/m 16,1 km/h (3 Bft) 95,74 %
24.02.2019 03:22 3,9 C 3,3 C 2,8 C 65 % 1034,5 hPa 0,0 l/m 0 min 0 min 0 W/m 19,3 km/h (3 Bft) 93,62 %
24.02.2019 03:24 3,9 C 3,3 C 2,8 C 65 % 1034,5 hPa 0,0 l/m 0 min 0 min 0 W/m 16,1 km/h (3 Bft) 97,83 %
24.02.2019 03:26 3,9 C 3,3 C 2,8 C 65 % 1034,4 hPa 0,0 l/m 0 min 0 min 0 W/m 16,1 km/h (3 Bft) 97,87 %
24.02.2019 03:28 3,9 C 3,3 C 2,8 C 65 % 1034,5 hPa 0,0 l/m 0 min 0 min 0 W/m 9,7 km/h (2 Bft) 95,74 %
24.02.2019 03:30 4,0 C 3,3 C 2,8 C 65 % 1034,5 hPa 0,0 l/m 0 min 0 min 0 W/m 12,9 km/h (3 Bft) 97,87 %
24.02.2019 03:32 3,9 C 3,3 C 2,8 C 65 % 1034,5 hPa 0,0 l/m 0 min 0 min 0 W/m 12,9 km/h (3 Bft) 95,74 %
24.02.2019 03:34 4,0 C 3,3 C 2,8 C 65 % 1034,4 hPa 0,0 l/m 0 min 0 min 0 W/m 16,1 km/h (3 Bft) 93,62 %
24.02.2019 03:36 4,0 C 3,3 C 2,8 C 65 % 1034,4 hPa 0,0 l/m 0 min 0 min 0 W/m 9,7 km/h (2 Bft) 96,55 %
24.02.2019 03:38 3,9 C 3,3 C 2,8 C 65 % 1034,5 hPa 0,0 l/m 0 min 0 min 0 W/m 19,3 km/h (3 Bft) 97,22 %
24.02.2019 03:40 4,0 C 3,3 C 2,8 C 64 % 1034,5 hPa 0,0 l/m 0 min 0 min 0 W/m 12,9 km/h (3 Bft) 95,65 %
24.02.2019 03:42 3,9 C 3,3 C 2,8 C 65 % 1034,6 hPa 0,0 l/m 0 min 0 min 0 W/m 9,7 km/h (2 Bft) 97,87 %
24.02.2019 03:44 3,9 C 3,3 C 2,8 C 65 % 1034,6 hPa 0,0 l/m 0 min 0 min 0 W/m 9,7 km/h (2 Bft) 97,87 %
24.02.2019 03:46 3,9 C 3,3 C 2,2 C 65 % 1034,6 hPa 0,0 l/m 0 min 0 min 0 W/m 9,7 km/h (2 Bft) 97,87 %
24.02.2019 03:48 4,0 C 3,3 C 2,2 C 65 % 1034,5 hPa 0,0 l/m 0 min 0 min 0 W/m 9,7 km/h (2 Bft) 95,65 %
24.02.2019 03:50 3,9 C 3,3 C 2,2 C 65 % 1034,5 hPa 0,0 l/m 0 min 0 min 0 W/m 9,7 km/h (2 Bft) 95,74 %
24.02.2019 03:52 3,9 C 3,3 C 2,8 C 64 % 1034,5 hPa 0,0 l/m 0 min 0 min 0 W/m 12,9 km/h (3 Bft) 95,74 %
24.02.2019 03:54 3,9 C 3,3 C 2,8 C 64 % 1034,5 hPa 0,0 l/m 0 min 0 min 0 W/m 12,9 km/h (3 Bft) 97,87 %
24.02.2019 03:56 3,9 C 3,3 C 2,8 C 64 % 1034,5 hPa 0,0 l/m 0 min 0 min 0 W/m 16,1 km/h (3 Bft) 93,62 %
24.02.2019 03:58 3,9 C 3,3 C 2,2 C 64 % 1034,6 hPa 0,0 l/m 0 min 0 min 0 W/m 16,1 km/h (3 Bft) 95,65 %
24.02.2019 04:00 3,9 C 3,3 C 2,2 C 64 % 1034,5 hPa 0,0 l/m 0 min 0 min 0 W/m 16,1 km/h (3 Bft) 97,87 %
24.02.2019 04:05 3,8 C 3,3 C 2,2 C 64 % 1034,5 hPa 0,0 l/m 0 min 0 min 0 W/m 19,3 km/h (3 Bft) 100,00 %
24.02.2019 04:06 3,8 C 3,3 C 2,2 C 64 % 1034,5 hPa 0,0 l/m 0 min 0 min 0 W/m 16,1 km/h (3 Bft) 100,00 %
24.02.2019 04:08 3,8 C 3,3 C 2,8 C 64 % 1034,4 hPa 0,0 l/m 0 min 0 min 0 W/m 16,1 km/h (3 Bft) 97,14 %
24.02.2019 04:10 3,8 C 3,3 C 2,8 C 64 % 1034,4 hPa 0,0 l/m 0 min 0 min 0 W/m 22,5 km/h (4 Bft) 97,83 %
24.02.2019 04:12 3,8 C 3,3 C 2,8 C 64 % 1034,4 hPa 0,0 l/m 0 min 0 min 0 W/m 16,1 km/h (3 Bft) 97,87 %
24.02.2019 04:14 3,8 C 3,3 C 2,2 C 64 % 1034,4 hPa 0,0 l/m 0 min 0 min 0 W/m 12,9 km/h (3 Bft) 97,87 %
24.02.2019 04:16 3,8 C 3,3 C 2,8 C 64 % 1034,5 hPa 0,0 l/m 0 min 0 min 0 W/m 22,5 km/h (4 Bft) 97,87 %
24.02.2019 04:18 3,8 C 3,3 C 2,2 C 64 % 1034,5 hPa 0,0 l/m 0 min 0 min 0 W/m 9,7 km/h (2 Bft) 97,87 %
24.02.2019 04:20 3,8 C 3,3 C 2,2 C 64 % 1034,6 hPa 0,0 l/m 0 min 0 min 0 W/m 12,9 km/h (3 Bft) 97,87 %
24.02.2019 04:22 3,8 C 3,3 C 2,2 C 64 % 1034,5 hPa 0,0 l/m 0 min 0 min 0 W/m 12,9 km/h (3 Bft) 97,83 %
24.02.2019 04:24 3,8 C 3,3 C 2,2 C 64 % 1034,5 hPa 0,0 l/m 0 min 0 min 0 W/m 16,1 km/h (3 Bft) 95,74 %
24.02.2019 04:26 3,8 C 3,3 C 2,2 C 64 % 1034,6 hPa 0,0 l/m 0 min 0 min 0 W/m 9,7 km/h (2 Bft) 93,62 %
24.02.2019 04:28 3,8 C 3,3 C 2,2 C 64 % 1034,6 hPa 0,0 l/m 0 min 0 min 0 W/m 16,1 km/h (3 Bft) 97,87 %
24.02.2019 04:30 3,8 C 3,3 C 2,2 C 64 % 1034,6 hPa 0,0 l/m 0 min 0 min 0 W/m 12,9 km/h (3 Bft) 97,87 %
24.02.2019 04:32 3,8 C 3,3 C 2,2 C 64 % 1034,6 hPa 0,0 l/m 0 min 0 min 0 W/m 9,7 km/h (2 Bft) 97,87 %
24.02.2019 04:34 3,8 C 3,3 C 2,2 C 64 % 1034,6 hPa 0,0 l/m 0 min 0 min 0 W/m 12,9 km/h (3 Bft) 97,83 %
24.02.2019 04:36 3,8 C 3,3 C 2,2 C 64 % 1034,7 hPa 0,0 l/m 0 min 0 min 0 W/m 19,3 km/h (3 Bft) 98,31 %
24.02.2019 04:38 3,7 C 3,3 C 2,2 C 64 % 1034,6 hPa 0,0 l/m 0 min 0 min 0 W/m 12,9 km/h (3 Bft) 100,00 %
24.02.2019 04:40 3,7 C 3,3 C 2,2 C 64 % 1034,7 hPa 0,0 l/m 0 min 0 min 0 W/m 19,3 km/h (3 Bft) 100,00 %
24.02.2019 04:42 3,7 C 3,3 C 2,2 C 64 % 1034,6 hPa 0,0 l/m 0 min 0 min 0 W/m 16,1 km/h (3 Bft) 100,00 %
24.02.2019 04:44 3,7 C 3,3 C 2,2 C 64 % 1034,7 hPa 0,0 l/m 0 min 0 min 0 W/m 25,7 km/h (4 Bft) 100,00 %
24.02.2019 04:46 3,7 C 3,3 C 2,2 C 64 % 1034,7 hPa 0,0 l/m 0 min 0 min 0 W/m 22,5 km/h (4 Bft) 97,83 %
24.02.2019 04:48 3,7 C 3,3 C 2,2 C 64 % 1034,7 hPa 0,0 l/m 0 min 0 min 0 W/m 16,1 km/h (3 Bft) 97,87 %
24.02.2019 04:50 3,7 C 3,3 C 2,2 C 63 % 1034,7 hPa 0,0 l/m 0 min 0 min 0 W/m 16,1 km/h (3 Bft) 97,87 %
24.02.2019 04:52 3,7 C 3,3 C 2,2 C 63 % 1034,7 hPa 0,0 l/m 0 min 0 min 0 W/m 16,1 km/h (3 Bft) 100,00 %
24.02.2019 04:54 3,7 C 3,3 C 2,2 C 63 % 1034,7 hPa 0,0 l/m 0 min 0 min 0 W/m 16,1 km/h (3 Bft) 100,00 %
24.02.2019 04:56 3,7 C 3,3 C 2,2 C 63 % 1034,7 hPa 0,0 l/m 0 min 0 min 0 W/m 19,3 km/h (3 Bft) 95,65 %
24.02.2019 04:58 3,7 C 3,3 C 2,2 C 63 % 1034,7 hPa 0,0 l/m 0 min 0 min 0 W/m 16,1 km/h (3 Bft) 97,87 %
24.02.2019 05:00 3,7 C 3,3 C 2,8 C 63 % 1034,7 hPa 0,0 l/m 0 min 0 min 0 W/m 25,7 km/h (4 Bft) 97,87 %
24.02.2019 05:02 3,7 C 3,3 C 2,8 C 62 % 1034,7 hPa 0,0 l/m 0 min 0 min 0 W/m 19,3 km/h (3 Bft) 100,00 %
24.02.2019 05:04 3,8 C 3,3 C 2,8 C 62 % 1034,7 hPa 0,0 l/m 0 min 0 min 0 W/m 12,9 km/h (3 Bft) 100,00 %
24.02.2019 05:05 3,8 C 3,3 C 2,8 C 62 % 1034,8 hPa 0,0 l/m 0 min 0 min 0 W/m 19,3 km/h (3 Bft) 100,00 %
24.02.2019 05:10 3,8 C 3,3 C 2,8 C 62 % 1034,7 hPa 0,0 l/m 0 min 0 min 0 W/m 22,5 km/h (4 Bft) 100,00 %
24.02.2019 05:12 3,8 C 3,3 C 2,8 C 62 % 1034,8 hPa 0,0 l/m 0 min 0 min 0 W/m 16,1 km/h (3 Bft) 97,06 %
24.02.2019 05:17 3,8 C 3,3 C 2,8 C 62 % 1034,9 hPa 0,0 l/m 0 min 0 min 0 W/m 29,0 km/h (5 Bft) 96,97 %
24.02.2019 05:18 3,8 C 3,3 C 2,8 C 61 % 1034,9 hPa 0,0 l/m 0 min 0 min 0 W/m 16,1 km/h (3 Bft) 100,00 %
24.02.2019 05:20 3,9 C 3,3 C 2,8 C 61 % 1034,9 hPa 0,0 l/m 0 min 0 min 0 W/m 22,5 km/h (4 Bft) 97,87 %
24.02.2019 05:22 3,9 C 3,3 C 2,8 C 61 % 1034,8 hPa 0,0 l/m 0 min 0 min 0 W/m 25,7 km/h (4 Bft) 93,62 %
24.02.2019 05:24 3,9 C 3,3 C 2,8 C 61 % 1034,9 hPa 0,0 l/m 0 min 0 min 0 W/m 32,2 km/h (5 Bft) 97,96 %
24.02.2019 05:26 3,9 C 3,3 C 2,8 C 61 % 1034,8 hPa 0,0 l/m 0 min 0 min 0 W/m 22,5 km/h (4 Bft) 97,83 %
24.02.2019 05:28 3,9 C 3,3 C 2,8 C 61 % 1034,9 hPa 0,0 l/m 0 min 0 min 0 W/m 22,5 km/h (4 Bft) 97,87 %
24.02.2019 05:30 3,9 C 3,3 C 2,8 C 61 % 1034,9 hPa 0,0 l/m 0 min 0 min 0 W/m 19,3 km/h (3 Bft) 97,87 %
24.02.2019 05:32 3,9 C 3,3 C 2,8 C 61 % 1034,8 hPa 0,0 l/m 0 min 0 min 0 W/m 22,5 km/h (4 Bft) 95,74 %
24.02.2019 05:34 4,0 C 3,3 C 2,8 C 60 % 1034,8 hPa 0,0 l/m 0 min 0 min 0 W/m 25,7 km/h (4 Bft) 97,87 %
24.02.2019 05:36 4,0 C 3,3 C 2,8 C 60 % 1034,8 hPa 0,0 l/m 0 min 0 min 0 W/m 22,5 km/h (4 Bft) 98,28 %
24.02.2019 05:38 4,0 C 3,3 C 2,8 C 60 % 1034,8 hPa 0,0 l/m 0 min 0 min 0 W/m 38,6 km/h (5 Bft) 97,14 %
24.02.2019 05:40 4,0 C 3,3 C 2,8 C 60 % 1034,7 hPa 0,0 l/m 0 min 0 min 0 W/m 32,2 km/h (5 Bft) 97,87 %
24.02.2019 05:42 4,0 C 3,3 C 2,8 C 60 % 1034,7 hPa 0,0 l/m 0 min 0 min 0 W/m 25,7 km/h (4 Bft) 97,87 %
24.02.2019 05:44 4,0 C 3,3 C 2,8 C 60 % 1034,8 hPa 0,0 l/m 0 min 0 min 0 W/m 22,5 km/h (4 Bft) 93,62 %
24.02.2019 05:46 4,0 C 3,3 C 2,8 C 60 % 1034,7 hPa 0,0 l/m 0 min 0 min 0 W/m 19,3 km/h (3 Bft) 97,87 %
24.02.2019 05:48 4,0 C 3,3 C 2,8 C 60 % 1034,9 hPa 0,0 l/m 0 min 0 min 0 W/m 22,5 km/h (4 Bft) 95,65 %
24.02.2019 05:50 4,0 C 3,3 C 2,8 C 60 % 1034,8 hPa 0,0 l/m 0 min 0 min 0 W/m 25,7 km/h (4 Bft) 97,87 %
24.02.2019 05:52 4,0 C 3,3 C 2,8 C 60 % 1034,9 hPa 0,0 l/m 0 min 0 min 0 W/m 25,7 km/h (4 Bft) 95,74 %
24.02.2019 05:54 4,0 C 3,3 C 2,8 C 60 % 1034,9 hPa 0,0 l/m 0 min 0 min 0 W/m 16,1 km/h (3 Bft) 97,87 %
24.02.2019 05:56 4,1 C 3,3 C 2,8 C 60 % 1034,9 hPa 0,0 l/m 0 min 0 min 0 W/m 22,5 km/h (4 Bft) 97,87 %
24.02.2019 05:58 4,0 C 3,3 C 2,8 C 60 % 1034,9 hPa 0,0 l/m 0 min 0 min 0 W/m 19,3 km/h (3 Bft) 97,87 %
24.02.2019 06:00 4,0 C 3,3 C 2,8 C 60 % 1034,9 hPa 0,0 l/m 0 min 0 min 0 W/m 22,5 km/h (4 Bft) 97,83 %
24.02.2019 06:02 4,0 C 3,3 C 2,8 C 60 % 1034,9 hPa 0,0 l/m 0 min 0 min 0 W/m 25,7 km/h (4 Bft) 95,92 %
24.02.2019 06:04 4,0 C 3,3 C 2,8 C 60 % 1034,9 hPa 0,0 l/m 0 min 0 min 0 W/m 25,7 km/h (4 Bft) 97,73 %
24.02.2019 06:08 3,9 C 3,3 C 2,8 C 60 % 1034,8 hPa 0,0 l/m 0 min 0 min 0 W/m 25,7 km/h (4 Bft) 97,87 %
24.02.2019 06:10 3,9 C 3,3 C 2,8 C 60 % 1034,8 hPa 0,0 l/m 0 min 0 min 0 W/m 22,5 km/h (4 Bft) 95,92 %
24.02.2019 06:12 3,9 C 3,3 C 2,8 C 60 % 1034,8 hPa 0,0 l/m 0 min 0 min 0 W/m 16,1 km/h (3 Bft) 97,83 %
24.02.2019 06:14 3,9 C 3,3 C 2,8 C 60 % 1034,8 hPa 0,0 l/m 0 min 0 min 0 W/m 19,3 km/h (3 Bft) 97,87 %
24.02.2019 06:16 3,9 C 3,3 C 2,8 C 60 % 1034,8 hPa 0,0 l/m 0 min 0 min 0 W/m 16,1 km/h (3 Bft) 95,92 %
24.02.2019 06:18 3,9 C 3,3 C 2,8 C 60 % 1034,8 hPa 0,0 l/m 0 min 0 min 0 W/m 22,5 km/h (4 Bft) 97,87 %
24.02.2019 06:20 3,9 C 3,3 C 2,2 C 60 % 1034,7 hPa 0,0 l/m 0 min 0 min 0 W/m 32,2 km/h (5 Bft) 97,83 %
24.02.2019 06:22 3,9 C 3,3 C 2,8 C 60 % 1034,8 hPa 0,0 l/m 0 min 0 min 0 W/m 29,0 km/h (5 Bft) 97,87 %
24.02.2019 06:24 3,9 C 3,3 C 2,8 C 60 % 1034,7 hPa 0,0 l/m 0 min 0 min 0 W/m 16,1 km/h (3 Bft) 97,87 %
24.02.2019 06:26 3,9 C 3,3 C 2,8 C 60 % 1034,7 hPa 0,0 l/m 0 min 0 min 0 W/m 16,1 km/h (3 Bft) 95,74 %
24.02.2019 06:28 3,8 C 3,3 C 2,2 C 60 % 1034,9 hPa 0,0 l/m 0 min 0 min 0 W/m 9,7 km/h (2 Bft) 97,87 %
24.02.2019 06:30 3,8 C 3,3 C 2,2 C 60 % 1034,8 hPa 0,0 l/m 0 min 0 min 0 W/m 25,7 km/h (4 Bft) 97,87 %
24.02.2019 06:32 3,8 C 3,3 C 2,2 C 60 % 1034,7 hPa 0,0 l/m 0 min 0 min 0 W/m 22,5 km/h (4 Bft) 97,83 %
24.02.2019 06:34 3,8 C 3,3 C 2,2 C 60 % 1034,7 hPa 0,0 l/m 0 min 0 min 0 W/m 16,1 km/h (3 Bft) 97,87 %
24.02.2019 06:36 3,8 C 3,3 C 2,2 C 60 % 1034,6 hPa 0,0 l/m 0 min 0 min 0 W/m 12,9 km/h (3 Bft) 100,00 %
24.02.2019 06:38 3,8 C 3,3 C 2,2 C 60 % 1034,5 hPa 0,0 l/m 0 min 0 min 0 W/m 22,5 km/h (4 Bft) 100,00 %
24.02.2019 06:40 3,8 C 3,3 C 2,2 C 60 % 1034,6 hPa 0,0 l/m 0 min 0 min 0 W/m 12,9 km/h (3 Bft) 97,87 %
24.02.2019 06:42 3,8 C 3,3 C 2,2 C 60 % 1034,6 hPa 0,0 l/m 0 min 0 min 0 W/m 16,1 km/h (3 Bft) 97,87 %
24.02.2019 06:44 3,8 C 3,3 C 2,2 C 60 % 1034,5 hPa 0,0 l/m 0 min 0 min 0 W/m 19,3 km/h (3 Bft) 97,83 %
24.02.2019 06:46 3,7 C 3,3 C 2,2 C 60 % 1034,6 hPa 0,0 l/m 0 min 0 min 0 W/m 19,3 km/h (3 Bft) 100,00 %
24.02.2019 06:48 3,7 C 3,3 C 2,2 C 60 % 1034,5 hPa 0,0 l/m 0 min 0 min 0 W/m 12,9 km/h (3 Bft) 97,83 %
24.02.2019 06:50 3,7 C 3,3 C 2,2 C 60 % 1034,6 hPa 0,0 l/m 0 min 0 min 0 W/m 12,9 km/h (3 Bft) 100,00 %
24.02.2019 06:52 3,7 C 3,3 C 2,2 C 60 % 1034,5 hPa 0,0 l/m 0 min 0 min 0 W/m 12,9 km/h (3 Bft) 100,00 %
24.02.2019 06:54 3,7 C 3,3 C 2,2 C 60 % 1034,6 hPa 0,0 l/m 0 min 0 min 0 W/m 16,1 km/h (3 Bft) 97,87 %
24.02.2019 06:56 3,7 C 3,3 C 2,2 C 60 % 1034,5 hPa 0,0 l/m 0 min 0 min 0 W/m 19,3 km/h (3 Bft) 100,00 %
24.02.2019 06:58 3,7 C 3,3 C 2,2 C 60 % 1034,5 hPa 0,0 l/m 0 min 0 min 0 W/m 16,1 km/h (3 Bft) 100,00 %
24.02.2019 07:00 3,6 C 3,3 C 2,2 C 60 % 1034,5 hPa 0,0 l/m 0 min 0 min 0 W/m 12,9 km/h (3 Bft) 100,00 %
24.02.2019 07:02 3,6 C 2,8 C 2,2 C 60 % 1034,5 hPa 0,0 l/m 0 min 0 min 0 W/m 25,7 km/h (4 Bft) 100,00 %
24.02.2019 07:04 3,6 C 2,8 C 2,2 C 60 % 1034,5 hPa 0,0 l/m 0 min 0 min 0 W/m 19,3 km/h (3 Bft) 100,00 %
24.02.2019 07:06 3,6 C 2,8 C 2,2 C 60 % 1034,6 hPa 0,0 l/m 0 min 0 min 0 W/m 16,1 km/h (3 Bft) 100,00 %
24.02.2019 07:08 3,6 C 2,8 C 2,2 C 60 % 1034,5 hPa 0,0 l/m 0 min 0 min 0 W/m 19,3 km/h (3 Bft) 94,44 %
24.02.2019 07:10 3,6 C 3,3 C 2,2 C 60 % 1034,5 hPa 0,0 l/m 0 min 0 min 0 W/m 16,1 km/h (3 Bft) 100,00 %
24.02.2019 07:12 3,6 C 2,8 C 2,2 C 60 % 1034,6 hPa 0,0 l/m 0 min 0 min 0 W/m 19,3 km/h (3 Bft) 100,00 %
24.02.2019 07:14 3,6 C 2,8 C 2,2 C 60 % 1034,6 hPa 0,0 l/m 0 min 0 min 0 W/m 12,9 km/h (3 Bft) 95,74 %
24.02.2019 07:16 3,6 C 2,8 C 2,2 C 60 % 1034,6 hPa 0,0 l/m 0 min 0 min 0 W/m 19,3 km/h (3 Bft) 95,74 %
24.02.2019 07:18 3,6 C 2,8 C 2,2 C 60 % 1034,6 hPa 0,0 l/m 0 min 0 min 0 W/m 16,1 km/h (3 Bft) 100,00 %
24.02.2019 07:20 3,6 C 2,8 C 2,2 C 60 % 1034,6 hPa 0,0 l/m 0 min 0 min 0 W/m 16,1 km/h (3 Bft) 100,00 %
24.02.2019 07:22 3,6 C 2,8 C 2,2 C 60 % 1034,6 hPa 0,0 l/m 0 min 0 min 0 W/m 12,9 km/h (3 Bft) 97,83 %
24.02.2019 07:24 3,6 C 3,3 C 2,2 C 60 % 1034,6 hPa 0,0 l/m 0 min 0 min 0 W/m 16,1 km/h (3 Bft) 95,74 %
24.02.2019 07:26 3,6 C 2,8 C 2,2 C 60 % 1034,5 hPa 0,0 l/m 0 min 0 min 0 W/m 16,1 km/h (3 Bft) 95,74 %
24.02.2019 07:28 3,6 C 2,8 C 2,2 C 60 % 1034,5 hPa 0,0 l/m 0 min 0 min 0 W/m 12,9 km/h (3 Bft) 95,74 %
24.02.2019 07:30 3,6 C 2,8 C 2,2 C 60 % 1034,5 hPa 0,0 l/m 0 min 0 min 0 W/m 19,3 km/h (3 Bft) 97,87 %
24.02.2019 07:32 3,5 C 2,8 C 2,2 C 60 % 1034,5 hPa 0,0 l/m 0 min 0 min 0 W/m 16,1 km/h (3 Bft) 95,65 %
24.02.2019 07:34 3,5 C 2,8 C 2,2 C 60 % 1034,4 hPa 0,0 l/m 0 min 0 min 4 W/m 12,9 km/h (3 Bft) 95,83 %
24.02.2019 07:36 3,6 C 2,8 C 2,2 C 60 % 1034,6 hPa 0,0 l/m 0 min 0 min 5 W/m 16,1 km/h (3 Bft) 94,92 %
24.02.2019 07:38 3,5 C 2,8 C 2,2 C 60 % 1034,6 hPa 0,0 l/m 0 min 0 min 5 W/m 16,1 km/h (3 Bft) 94,29 %
24.02.2019 07:40 3,5 C 2,8 C 2,2 C 60 % 1034,5 hPa 0,0 l/m 0 min 0 min 7 W/m 12,9 km/h (3 Bft) 95,74 %
24.02.2019 07:42 3,5 C 2,8 C 2,2 C 61 % 1034,7 hPa 0,0 l/m 0 min 0 min 7 W/m 16,1 km/h (3 Bft) 95,65 %
24.02.2019 07:44 3,5 C 2,8 C 2,2 C 61 % 1034,6 hPa 0,0 l/m 0 min 0 min 7 W/m 9,7 km/h (2 Bft) 95,74 %
24.02.2019 07:46 3,4 C 2,8 C 1,7 C 61 % 1034,7 hPa 0,0 l/m 0 min 0 min 9 W/m 9,7 km/h (2 Bft) 93,62 %
24.02.2019 07:48 3,4 C 2,8 C 1,7 C 61 % 1034,8 hPa 0,0 l/m 0 min 0 min 9 W/m 9,7 km/h (2 Bft) 95,74 %
24.02.2019 07:50 3,4 C 2,8 C 2,2 C 61 % 1034,8 hPa 0,0 l/m 0 min 0 min 11 W/m 16,1 km/h (3 Bft) 95,74 %
24.02.2019 07:52 3,4 C 2,8 C 2,2 C 61 % 1034,7 hPa 0,0 l/m 0 min 0 min 11 W/m 9,7 km/h (2 Bft) 95,65 %
24.02.2019 07:54 3,4 C 2,8 C 2,2 C 61 % 1034,8 hPa 0,0 l/m 0 min 0 min 11 W/m 12,9 km/h (3 Bft) 95,74 %
24.02.2019 07:56 3,4 C 2,8 C 2,2 C 61 % 1034,8 hPa 0,0 l/m 0 min 0 min 12 W/m 16,1 km/h (3 Bft) 95,74 %
24.02.2019 07:58 3,4 C 2,8 C 2,2 C 61 % 1034,8 hPa 0,0 l/m 0 min 0 min 12 W/m 16,1 km/h (3 Bft) 95,74 %
24.02.2019 08:00 3,4 C 2,8 C 2,2 C 61 % 1034,8 hPa 0,0 l/m 0 min 0 min 12 W/m 12,9 km/h (3 Bft) 93,62 %
24.02.2019 08:02 3,3 C 2,8 C 2,2 C 61 % 1034,8 hPa 0,0 l/m 0 min 0 min 14 W/m 9,7 km/h (2 Bft) 93,62 %
24.02.2019 08:04 3,3 C 2,8 C 2,2 C 62 % 1034,8 hPa 0,0 l/m 0 min 0 min 14 W/m 25,7 km/h (4 Bft) 95,65 %
24.02.2019 08:06 3,3 C 2,8 C 2,2 C 62 % 1034,7 hPa 0,0 l/m 0 min 0 min 14 W/m 16,1 km/h (3 Bft) 94,92 %
24.02.2019 08:08 3,3 C 2,8 C 2,2 C 62 % 1034,7 hPa 0,0 l/m 0 min 0 min 16 W/m 16,1 km/h (3 Bft) 97,14 %
24.02.2019 08:10 3,3 C 2,8 C 2,2 C 62 % 1034,7 hPa 0,0 l/m 0 min 0 min 16 W/m 22,5 km/h (4 Bft) 97,56 %
24.02.2019 08:12 3,3 C 3,3 C 2,2 C 62 % 1034,7 hPa 0,0 l/m 0 min 0 min 16 W/m 22,5 km/h (4 Bft) 91,49 %
24.02.2019 08:14 3,4 C 3,3 C 2,2 C 62 % 1034,7 hPa 0,0 l/m 0 min 0 min 17 W/m 22,5 km/h (4 Bft) 97,87 %
24.02.2019 08:16 3,4 C 3,3 C 2,2 C 63 % 1034,8 hPa 0,0 l/m 0 min 0 min 18 W/m 16,1 km/h (3 Bft) 95,74 %
24.02.2019 08:18 3,4 C 3,3 C 2,2 C 63 % 1034,8 hPa 0,0 l/m 0 min 0 min 18 W/m 22,5 km/h (4 Bft) 97,87 %
24.02.2019 08:20 3,4 C 3,3 C 2,2 C 63 % 1034,8 hPa 0,0 l/m 0 min 0 min 18 W/m 19,3 km/h (3 Bft) 93,62 %
24.02.2019 08:22 3,4 C 3,3 C 2,2 C 63 % 1034,7 hPa 0,0 l/m 0 min 0 min 19 W/m 22,5 km/h (4 Bft) 97,83 %
24.02.2019 08:24 3,5 C 3,3 C 2,8 C 63 % 1034,7 hPa 0,0 l/m 0 min 0 min 19 W/m 19,3 km/h (3 Bft) 95,74 %
24.02.2019 08:26 3,5 C 3,3 C 2,8 C 63 % 1034,7 hPa 0,0 l/m 0 min 0 min 19 W/m 19,3 km/h (3 Bft) 97,87 %
24.02.2019 08:28 3,6 C 3,3 C 2,8 C 62 % 1034,6 hPa 0,0 l/m 0 min 0 min 21 W/m 25,7 km/h (4 Bft) 97,87 %
24.02.2019 08:30 3,6 C 3,3 C 2,8 C 62 % 1034,7 hPa 0,0 l/m 0 min 0 min 21 W/m 19,3 km/h (3 Bft) 95,74 %
24.02.2019 08:32 3,7 C 3,3 C 2,8 C 62 % 1034,7 hPa 0,0 l/m 0 min 0 min 21 W/m 12,9 km/h (3 Bft) 97,83 %
24.02.2019 08:34 3,7 C 3,3 C 2,8 C 62 % 1034,7 hPa 0,0 l/m 0 min 0 min 21 W/m 16,1 km/h (3 Bft) 97,96 %
24.02.2019 08:36 3,7 C 3,9 C 2,8 C 62 % 1034,7 hPa 0,0 l/m 0 min 0 min 23 W/m 16,1 km/h (3 Bft) 100,00 %
24.02.2019 08:38 3,7 C 3,9 C 2,8 C 62 % 1034,8 hPa 0,0 l/m 0 min 0 min 23 W/m 22,5 km/h (4 Bft) 100,00 %
24.02.2019 08:40 3,8 C 3,9 C 2,8 C 62 % 1034,7 hPa 0,0 l/m 0 min 0 min 23 W/m 22,5 km/h (4 Bft) 97,96 %
24.02.2019 08:42 3,8 C 3,9 C 2,8 C 62 % 1034,8 hPa 0,0 l/m 0 min 0 min 24 W/m 16,1 km/h (3 Bft) 97,87 %
24.02.2019 08:44 3,8 C 3,9 C 2,8 C 62 % 1034,8 hPa 0,0 l/m 0 min 0 min 25 W/m 12,9 km/h (3 Bft) 97,83 %
24.02.2019 08:46 3,9 C 3,9 C 2,8 C 62 % 1034,9 hPa 0,0 l/m 0 min 0 min 25 W/m 12,9 km/h (3 Bft) 95,74 %
24.02.2019 08:48 3,9 C 3,9 C 2,8 C 61 % 1034,9 hPa 0,0 l/m 0 min 0 min 25 W/m 22,5 km/h (4 Bft) 97,87 %
24.02.2019 08:50 3,9 C 3,9 C 3,3 C 61 % 1034,9 hPa 0,0 l/m 0 min 0 min 25 W/m 16,1 km/h (3 Bft) 95,92 %
24.02.2019 08:52 4,0 C 3,9 C 3,3 C 61 % 1034,9 hPa 0,0 l/m 0 min 0 min 26 W/m 16,1 km/h (3 Bft) 97,83 %
24.02.2019 08:54 4,0 C 3,9 C 3,3 C 61 % 1034,9 hPa 0,0 l/m 0 min 0 min 26 W/m 16,1 km/h (3 Bft) 95,74 %
24.02.2019 08:56 4,1 C 3,9 C 3,3 C 61 % 1034,9 hPa 0,0 l/m 0 min 0 min 26 W/m 16,1 km/h (3 Bft) 95,74 %
24.02.2019 08:58 4,1 C 4,4 C 3,3 C 61 % 1034,9 hPa 0,0 l/m 0 min 0 min 26 W/m 16,1 km/h (3 Bft) 97,87 %
24.02.2019 09:00 4,2 C 4,4 C 3,3 C 61 % 1034,9 hPa 0,0 l/m 0 min 0 min 28 W/m 16,1 km/h (3 Bft) 95,74 %
24.02.2019 09:02 4,2 C 4,4 C 3,3 C 60 % 1034,9 hPa 0,0 l/m 0 min 0 min 28 W/m 9,7 km/h (2 Bft) 95,65 %
24.02.2019 09:04 4,2 C 4,4 C 3,3 C 60 % 1035,0 hPa 0,0 l/m 0 min 0 min 28 W/m 9,7 km/h (2 Bft) 97,87 %
24.02.2019 09:06 4,3 C 4,4 C 3,3 C 60 % 1035,1 hPa 0,0 l/m 0 min 0 min 29 W/m 12,9 km/h (3 Bft) 98,11 %
24.02.2019 09:08 4,3 C 4,4 C 3,3 C 60 % 1035,1 hPa 0,0 l/m 0 min 0 min 30 W/m 16,1 km/h (3 Bft) 97,14 %
24.02.2019 09:10 4,4 C 4,4 C 3,3 C 60 % 1035,2 hPa 0,0 l/m 0 min 0 min 30 W/m 12,9 km/h (3 Bft) 95,74 %
24.02.2019 09:12 4,4 C 4,4 C 3,9 C 60 % 1035,2 hPa 0,0 l/m 0 min 0 min 30 W/m 9,7 km/h (2 Bft) 97,87 %
24.02.2019 09:14 4,4 C 4,4 C 3,9 C 60 % 1035,2 hPa 0,0 l/m 0 min 0 min 30 W/m 12,9 km/h (3 Bft) 100,00 %
24.02.2019 09:16 4,5 C 5,0 C 3,9 C 59 % 1035,2 hPa 0,0 l/m 0 min 0 min 32 W/m 9,7 km/h (2 Bft) 97,87 %
24.02.2019 09:18 4,6 C 5,0 C 3,9 C 59 % 1035,2 hPa 0,0 l/m 0 min 0 min 32 W/m 12,9 km/h (3 Bft) 97,87 %
24.02.2019 09:20 4,6 C 5,0 C 3,9 C 59 % 1035,3 hPa 0,0 l/m 0 min 0 min 32 W/m 16,1 km/h (3 Bft) 97,83 %
24.02.2019 09:22 4,7 C 5,0 C 3,9 C 59 % 1035,4 hPa 0,0 l/m 0 min 0 min 42 W/m 12,9 km/h (3 Bft) 95,74 %
24.02.2019 09:24 4,7 C 7,2 C 3,9 C 58 % 1035,4 hPa 0,0 l/m 2 min 0 min 178 W/m 9,7 km/h (2 Bft) 97,87 %
24.02.2019 09:26 4,8 C 8,3 C 4,4 C 58 % 1035,3 hPa 0,0 l/m 2 min 0 min 259 W/m 12,9 km/h (3 Bft) 100,00 %
24.02.2019 09:28 4,9 C 9,4 C 4,4 C 58 % 1035,4 hPa 0,0 l/m 2 min 0 min 264 W/m 9,7 km/h (2 Bft) 100,00 %
24.02.2019 09:30 5,0 C 9,4 C 4,4 C 57 % 1035,4 hPa 0,0 l/m 2 min 0 min 270 W/m 19,3 km/h (3 Bft) 100,00 %
24.02.2019 09:32 5,2 C 9,4 C 4,4 C 57 % 1035,5 hPa 0,0 l/m 2 min 0 min 275 W/m 12,9 km/h (3 Bft) 100,00 %
24.02.2019 09:34 5,3 C 10,0 C 4,4 C 56 % 1035,5 hPa 0,0 l/m 2 min 0 min 280 W/m 9,7 km/h (2 Bft) 100,00 %
24.02.2019 09:36 5,5 C 10,6 C 5,0 C 56 % 1035,4 hPa 0,0 l/m 2 min 0 min 285 W/m 19,3 km/h (3 Bft) 100,00 %
24.02.2019 09:38 5,7 C 11,1 C 5,6 C 56 % 1035,4 hPa 0,0 l/m 2 min 0 min 290 W/m 12,9 km/h (3 Bft) 97,14 %
24.02.2019 09:40 5,8 C 10,6 C 6,7 C 56 % 1035,4 hPa 0,0 l/m 2 min 0 min 295 W/m 12,9 km/h (3 Bft) 100,00 %
24.02.2019 09:42 6,0 C 10,6 C 7,8 C 54 % 1035,4 hPa 0,0 l/m 2 min 0 min 300 W/m 22,5 km/h (4 Bft) 100,00 %
24.02.2019 09:44 6,2 C 10,6 C 8,3 C 53 % 1035,4 hPa 0,0 l/m 2 min 0 min 304 W/m 22,5 km/h (4 Bft) 100,00 %
24.02.2019 09:46 6,4 C 10,0 C 8,9 C 52 % 1035,5 hPa 0,0 l/m 2 min 0 min 309 W/m 22,5 km/h (4 Bft) 100,00 %
24.02.2019 09:48 6,5 C 10,0 C 9,4 C 52 % 1035,5 hPa 0,0 l/m 2 min 0 min 315 W/m 16,1 km/h (3 Bft) 100,00 %
24.02.2019 09:50 6,7 C 10,0 C 9,4 C 51 % 1035,4 hPa 0,0 l/m 2 min 0 min 318 W/m 22,5 km/h (4 Bft) 97,87 %
24.02.2019 09:52 6,8 C 10,0 C 9,4 C 50 % 1035,5 hPa 0,0 l/m 2 min 0 min 324 W/m 25,7 km/h (4 Bft) 100,00 %
24.02.2019 09:54 6,9 C 10,6 C 9,4 C 50 % 1035,6 hPa 0,0 l/m 2 min 0 min 329 W/m 32,2 km/h (5 Bft) 100,00 %
24.02.2019 09:56 7,0 C 11,1 C 10,0 C 50 % 1035,7 hPa 0,0 l/m 2 min 0 min 332 W/m 12,9 km/h (3 Bft) 100,00 %
24.02.2019 09:58 7,1 C 11,1 C 10,6 C 49 % 1035,7 hPa 0,0 l/m 2 min 0 min 337 W/m 19,3 km/h (3 Bft) 100,00 %
24.02.2019 10:00 7,2 C 11,1 C 10,6 C 49 % 1035,7 hPa 0,0 l/m 2 min 0 min 341 W/m 25,7 km/h (4 Bft) 100,00 %
24.02.2019 10:02 7,3 C 10,6 C 10,0 C 48 % 1035,8 hPa 0,0 l/m 2 min 0 min 346 W/m 29,0 km/h (5 Bft) 100,00 %
24.02.2019 10:04 7,4 C 10,0 C 10,0 C 47 % 1035,8 hPa 0,0 l/m 2 min 0 min 349 W/m 29,0 km/h (5 Bft) 100,00 %
24.02.2019 10:06 7,5 C 11,1 C 10,6 C 48 % 1035,9 hPa 0,0 l/m 2 min 0 min 355 W/m 22,5 km/h (4 Bft) 100,00 %
24.02.2019 10:08 7,6 C 11,1 C 9,4 C 48 % 1035,9 hPa 0,0 l/m 2 min 0 min 359 W/m 22,5 km/h (4 Bft) 100,00 %
24.02.2019 10:10 7,7 C 11,7 C 8,9 C 49 % 1035,8 hPa 0,0 l/m 2 min 0 min 363 W/m 16,1 km/h (3 Bft) 97,87 %
24.02.2019 10:12 7,7 C 11,7 C 7,8 C 49 % 1035,9 hPa 0,0 l/m 2 min 0 min 367 W/m 16,1 km/h (3 Bft) 100,00 %
24.02.2019 10:14 7,8 C 11,7 C 7,2 C 47 % 1035,8 hPa 0,0 l/m 2 min 0 min 372 W/m 22,5 km/h (4 Bft) 100,00 %
24.02.2019 10:16 7,9 C 12,2 C 7,2 C 48 % 1035,9 hPa 0,0 l/m 2 min 0 min 376 W/m 12,9 km/h (3 Bft) 100,00 %
24.02.2019 10:18 8,0 C 12,2 C 7,2 C 48 % 1035,9 hPa 0,0 l/m 2 min 0 min 380 W/m 16,1 km/h (3 Bft) 100,00 %
24.02.2019 10:20 8,1 C 12,2 C 7,2 C 48 % 1036,0 hPa 0,0 l/m 2 min 0 min 384 W/m 19,3 km/h (3 Bft) 97,87 %
24.02.2019 10:22 8,2 C 12,2 C 7,2 C 47 % 1035,9 hPa 0,0 l/m 2 min 0 min 388 W/m 16,1 km/h (3 Bft) 100,00 %
24.02.2019 10:24 8,2 C 12,8 C 7,2 C 47 % 1035,9 hPa 0,0 l/m 2 min 0 min 392 W/m 9,7 km/h (2 Bft) 100,00 %
24.02.2019 10:26 8,3 C 13,3 C 7,2 C 47 % 1035,9 hPa 0,0 l/m 2 min 0 min 397 W/m 6,4 km/h (2 Bft) 97,87 %
24.02.2019 10:28 8,4 C 13,3 C 7,2 C 47 % 1035,9 hPa 0,0 l/m 2 min 0 min 401 W/m 12,9 km/h (3 Bft) 100,00 %
24.02.2019 10:30 8,6 C 12,8 C 7,2 C 46 % 1035,9 hPa 0,0 l/m 2 min 0 min 405 W/m 16,1 km/h (3 Bft) 100,00 %
24.02.2019 10:32 8,7 C 12,8 C 7,2 C 46 % 1036,0 hPa 0,0 l/m 2 min 0 min 409 W/m 22,5 km/h (4 Bft) 95,74 %
24.02.2019 10:34 8,7 C 12,8 C 7,8 C 46 % 1036,0 hPa 0,0 l/m 2 min 0 min 413 W/m 19,3 km/h (3 Bft) 100,00 %
24.02.2019 10:36 8,9 C 13,9 C 7,8 C 45 % 1036,0 hPa 0,0 l/m 2 min 0 min 417 W/m 12,9 km/h (3 Bft) 100,00 %
24.02.2019 10:38 8,9 C 13,3 C 7,8 C 44 % 1036,0 hPa 0,0 l/m 2 min 0 min 421 W/m 19,3 km/h (3 Bft) 97,14 %
24.02.2019 10:40 9,1 C 13,9 C 7,8 C 44 % 1036,1 hPa 0,0 l/m 2 min 0 min 424 W/m 9,7 km/h (2 Bft) 97,87 %
24.02.2019 10:42 9,1 C 13,9 C 7,8 C 44 % 1036,1 hPa 0,0 l/m 2 min 0 min 429 W/m 12,9 km/h (3 Bft) 97,87 %
24.02.2019 10:44 9,2 C 13,9 C 7,8 C 43 % 1036,1 hPa 0,0 l/m 2 min 0 min 431 W/m 19,3 km/h (3 Bft) 97,87 %
24.02.2019 10:46 9,3 C 13,3 C 7,8 C 43 % 1036,2 hPa 0,0 l/m 2 min 0 min 435 W/m 22,5 km/h (4 Bft) 97,87 %
24.02.2019 10:48 9,4 C 13,3 C 7,8 C 43 % 1036,2 hPa 0,0 l/m 2 min 0 min 439 W/m 19,3 km/h (3 Bft) 97,83 %
24.02.2019 10:50 9,4 C 12,8 C 7,8 C 42 % 1036,2 hPa 0,0 l/m 2 min 0 min 442 W/m 29,0 km/h (5 Bft) 95,74 %
24.02.2019 10:52 9,5 C 13,9 C 7,8 C 42 % 1036,2 hPa 0,0 l/m 2 min 0 min 446 W/m 16,1 km/h (3 Bft) 97,87 %
24.02.2019 10:54 9,6 C 13,3 C 8,3 C 41 % 1036,1 hPa 0,0 l/m 2 min 0 min 448 W/m 19,3 km/h (3 Bft) 95,74 %
24.02.2019 10:56 9,6 C 13,9 C 8,3 C 42 % 1036,1 hPa 0,0 l/m 2 min 0 min 453 W/m 19,3 km/h (3 Bft) 95,74 %
24.02.2019 10:58 9,7 C 13,3 C 8,3 C 41 % 1036,0 hPa 0,0 l/m 2 min 0 min 456 W/m 19,3 km/h (3 Bft) 95,74 %
24.02.2019 11:00 9,7 C 13,3 C 8,3 C 41 % 1036,0 hPa 0,0 l/m 2 min 0 min 459 W/m 22,5 km/h (4 Bft) 93,48 %
24.02.2019 11:02 9,8 C 13,3 C 8,3 C 41 % 1036,0 hPa 0,0 l/m 2 min 0 min 462 W/m 25,7 km/h (4 Bft) 95,74 %
24.02.2019 11:04 9,8 C 13,3 C 8,3 C 41 % 1035,9 hPa 0,0 l/m 2 min 0 min 464 W/m 25,7 km/h (4 Bft) 91,49 %
24.02.2019 11:06 9,9 C 13,9 C 8,3 C 41 % 1035,8 hPa 0,0 l/m 2 min 0 min 467 W/m 29,0 km/h (5 Bft) 94,92 %
24.02.2019 11:08 9,9 C 13,3 C 8,3 C 40 % 1035,8 hPa 0,0 l/m 2 min 0 min 471 W/m 29,0 km/h (5 Bft) 91,43 %
24.02.2019 11:10 9,9 C 13,3 C 8,3 C 40 % 1035,9 hPa 0,0 l/m 2 min 0 min 475 W/m 29,0 km/h (5 Bft) 95,74 %
24.02.2019 11:12 9,9 C 13,9 C 8,3 C 40 % 1035,8 hPa 0,0 l/m 2 min 0 min 477 W/m 22,5 km/h (4 Bft) 95,65 %
24.02.2019 11:14 10,0 C 13,3 C 8,9 C 40 % 1035,9 hPa 0,0 l/m 2 min 0 min 478 W/m 22,5 km/h (4 Bft) 93,62 %
24.02.2019 11:16 10,0 C 13,9 C 8,9 C 41 % 1035,8 hPa 0,0 l/m 2 min 0 min 482 W/m 25,7 km/h (4 Bft) 91,49 %
24.02.2019 11:18 10,1 C 13,9 C 8,9 C 40 % 1035,9 hPa 0,0 l/m 2 min 0 min 484 W/m 19,3 km/h (3 Bft) 95,74 %
24.02.2019 11:20 10,1 C 13,3 C 8,9 C 40 % 1035,9 hPa 0,0 l/m 2 min 0 min 487 W/m 25,7 km/h (4 Bft) 95,12 %
24.02.2019 11:22 10,1 C 13,9 C 8,9 C 42 % 1035,9 hPa 0,0 l/m 2 min 0 min 489 W/m 22,5 km/h (4 Bft) 94,00 %
24.02.2019 11:24 10,2 C 15,0 C 8,9 C 42 % 1036,0 hPa 0,0 l/m 2 min 0 min 492 W/m 16,1 km/h (3 Bft) 95,74 %
24.02.2019 11:26 10,2 C 15,0 C 9,4 C 42 % 1036,0 hPa 0,0 l/m 2 min 0 min 495 W/m 22,5 km/h (4 Bft) 93,48 %
24.02.2019 11:28 10,3 C 15,6 C 9,4 C 42 % 1035,9 hPa 0,0 l/m 2 min 0 min 497 W/m 22,5 km/h (4 Bft) 93,88 %
24.02.2019 11:30 10,4 C 16,1 C 9,4 C 41 % 1035,9 hPa 0,0 l/m 2 min 0 min 499 W/m 12,9 km/h (3 Bft) 95,83 %
24.02.2019 11:32 10,5 C 15,6 C 9,4 C 41 % 1036,0 hPa 0,0 l/m 2 min 0 min 503 W/m 22,5 km/h (4 Bft) 97,87 %
24.02.2019 11:34 10,6 C 15,0 C 9,4 C 41 % 1036,0 hPa 0,0 l/m 2 min 0 min 504 W/m 16,1 km/h (3 Bft) 93,48 %
24.02.2019 11:36 10,7 C 15,0 C 9,4 C 39 % 1036,0 hPa 0,0 l/m 2 min 0 min 507 W/m 29,0 km/h (5 Bft) 93,22 %
24.02.2019 11:38 10,8 C 15,0 C 9,4 C 38 % 1035,9 hPa 0,0 l/m 2 min 0 min 510 W/m 19,3 km/h (3 Bft) 97,14 %
24.02.2019 11:40 10,8 C 15,6 C 9,4 C 38 % 1036,0 hPa 0,0 l/m 2 min 0 min 512 W/m 25,7 km/h (4 Bft) 95,74 %
24.02.2019 11:42 10,9 C 15,6 C 10,0 C 38 % 1035,9 hPa 0,0 l/m 2 min 0 min 513 W/m 32,2 km/h (5 Bft) 97,87 %
24.02.2019 11:44 10,9 C 14,4 C 9,4 C 38 % 1035,9 hPa 0,0 l/m 2 min 0 min 516 W/m 22,5 km/h (4 Bft) 95,74 %
24.02.2019 11:46 10,9 C 14,4 C 9,4 C 38 % 1035,9 hPa 0,0 l/m 2 min 0 min 518 W/m 25,7 km/h (4 Bft) 97,83 %
24.02.2019 11:48 11,0 C 15,0 C 10,0 C 38 % 1035,9 hPa 0,0 l/m 2 min 0 min 519 W/m 25,7 km/h (4 Bft) 100,00 %
24.02.2019 11:50 11,0 C 15,0 C 10,0 C 39 % 1035,9 hPa 0,0 l/m 2 min 0 min 520 W/m 22,5 km/h (4 Bft) 100,00 %
24.02.2019 11:52 11,0 C 15,0 C 10,0 C 38 % 1035,9 hPa 0,0 l/m 2 min 0 min 524 W/m 29,0 km/h (5 Bft) 97,87 %
24.02.2019 11:54 11,1 C 15,6 C 10,0 C 38 % 1035,9 hPa 0,0 l/m 2 min 0 min 525 W/m 16,1 km/h (3 Bft) 97,87 %
24.02.2019 11:56 11,2 C 16,1 C 10,0 C 39 % 1035,9 hPa 0,0 l/m 2 min 0 min 526 W/m 19,3 km/h (3 Bft) 97,87 %
24.02.2019 11:58 11,2 C 16,1 C 10,0 C 39 % 1036,0 hPa 0,0 l/m 2 min 0 min 527 W/m 19,3 km/h (3 Bft) 97,83 %
24.02.2019 12:00 11,3 C 16,7 C 10,6 C 39 % 1036,0 hPa 0,0 l/m 2 min 0 min 530 W/m 12,9 km/h (3 Bft) 100,00 %
24.02.2019 12:02 11,4 C 17,2 C 10,6 C 39 % 1035,9 hPa 0,0 l/m 2 min 0 min 530 W/m 12,9 km/h (3 Bft) 97,87 %
24.02.2019 12:04 11,5 C 17,2 C 10,6 C 39 % 1035,9 hPa 0,0 l/m 2 min 0 min 533 W/m 22,5 km/h (4 Bft) 93,62 %
24.02.2019 12:08 11,7 C 16,7 C 10,6 C 37 % 1036,0 hPa 0,0 l/m 4 min 0 min 534 W/m 16,1 km/h (3 Bft) 100,00 %
24.02.2019 12:10 11,8 C 16,1 C 10,6 C 37 % 1036,0 hPa 0,0 l/m 2 min 0 min 536 W/m 16,1 km/h (3 Bft) 100,00 %
24.02.2019 12:12 11,9 C 16,1 C 10,6 C 37 % 1036,1 hPa 0,0 l/m 2 min 0 min 537 W/m 16,1 km/h (3 Bft) 95,92 %
24.02.2019 12:14 11,9 C 17,2 C 11,1 C 37 % 1036,0 hPa 0,0 l/m 2 min 0 min 539 W/m 9,7 km/h (2 Bft) 97,83 %
24.02.2019 12:16 12,0 C 17,2 C 11,1 C 37 % 1036,1 hPa 0,0 l/m 2 min 0 min 540 W/m 16,1 km/h (3 Bft) 100,00 %
24.02.2019 12:18 12,1 C 17,2 C 11,1 C 37 % 1036,0 hPa 0,0 l/m 2 min 0 min 540 W/m 12,9 km/h (3 Bft) 100,00 %
24.02.2019 12:20 12,1 C 17,2 C 11,1 C 37 % 1036,0 hPa 0,0 l/m 2 min 0 min 541 W/m 16,1 km/h (3 Bft) 100,00 %
24.02.2019 12:22 12,2 C 17,2 C 11,1 C 37 % 1036,0 hPa 0,0 l/m 2 min 0 min 542 W/m 16,1 km/h (3 Bft) 97,87 %
24.02.2019 12:24 12,3 C 17,2 C 11,1 C 37 % 1036,0 hPa 0,0 l/m 2 min 0 min 544 W/m 16,1 km/h (3 Bft) 97,87 %
24.02.2019 12:26 12,4 C 17,2 C 11,7 C 37 % 1036,0 hPa 0,0 l/m 2 min 0 min 545 W/m 16,1 km/h (3 Bft) 100,00 %
24.02.2019 12:28 12,4 C 17,2 C 11,7 C 37 % 1036,0 hPa 0,0 l/m 2 min 0 min 545 W/m 16,1 km/h (3 Bft) 100,00 %
24.02.2019 12:30 12,6 C 17,2 C 11,7 C 37 % 1035,9 hPa 0,0 l/m 2 min 0 min 545 W/m 16,1 km/h (3 Bft) 100,00 %
24.02.2019 12:32 12,6 C 16,7 C 12,2 C 37 % 1035,9 hPa 0,0 l/m 2 min 0 min 546 W/m 16,1 km/h (3 Bft) 95,74 %
24.02.2019 12:34 12,7 C 16,7 C 12,8 C 38 % 1035,9 hPa 0,0 l/m 2 min 0 min 547 W/m 16,1 km/h (3 Bft) 97,87 %
24.02.2019 12:36 12,7 C 17,2 C 15,0 C 39 % 1035,9 hPa 0,0 l/m 2 min 0 min 546 W/m 16,1 km/h (3 Bft) 98,28 %
24.02.2019 12:38 12,7 C 17,2 C 15,0 C 38 % 1035,9 hPa 0,0 l/m 2 min 0 min 547 W/m 22,5 km/h (4 Bft) 100,00 %
24.02.2019 12:40 12,8 C 16,7 C 16,1 C 38 % 1035,8 hPa 0,0 l/m 2 min 0 min 547 W/m 16,1 km/h (3 Bft) 95,92 %
24.02.2019 12:42 12,9 C 17,8 C 18,3 C 38 % 1035,7 hPa 0,0 l/m 2 min 0 min 548 W/m 16,1 km/h (3 Bft) 95,74 %
24.02.2019 12:44 12,9 C 17,8 C 18,9 C 38 % 1035,7 hPa 0,0 l/m 2 min 0 min 547 W/m 12,9 km/h (3 Bft) 97,87 %
24.02.2019 12:46 13,0 C 16,7 C 18,9 C 37 % 1035,7 hPa 0,0 l/m 2 min 0 min 548 W/m 22,5 km/h (4 Bft) 95,83 %
24.02.2019 12:48 13,0 C 16,7 C 18,9 C 37 % 1035,8 hPa 0,0 l/m 2 min 0 min 547 W/m 16,1 km/h (3 Bft) 97,87 %
24.02.2019 12:50 13,1 C 16,7 C 18,9 C 36 % 1035,8 hPa 0,0 l/m 2 min 0 min 547 W/m 19,3 km/h (3 Bft) 97,87 %
24.02.2019 12:52 13,1 C 17,2 C 18,9 C 37 % 1035,8 hPa 0,0 l/m 2 min 0 min 547 W/m 19,3 km/h (3 Bft) 97,87 %
24.02.2019 12:54 13,1 C 17,8 C 19,4 C 36 % 1035,8 hPa 0,0 l/m 2 min 0 min 548 W/m 25,7 km/h (4 Bft) 97,87 %
24.02.2019 12:56 13,2 C 17,2 C 18,9 C 36 % 1035,8 hPa 0,0 l/m 2 min 0 min 548 W/m 22,5 km/h (4 Bft) 97,83 %
24.02.2019 12:58 13,2 C 17,2 C 19,4 C 36 % 1035,8 hPa 0,0 l/m 2 min 0 min 547 W/m 19,3 km/h (3 Bft) 97,87 %
24.02.2019 13:00 13,2 C 18,3 C 20,0 C 36 % 1035,8 hPa 0,0 l/m 2 min 0 min 547 W/m 12,9 km/h (3 Bft) 97,87 %
24.02.2019 13:02 13,3 C 18,3 C 20,6 C 36 % 1035,8 hPa 0,0 l/m 2 min 0 min 548 W/m 16,1 km/h (3 Bft) 97,87 %
24.02.2019 13:04 13,3 C 18,3 C 20,6 C 36 % 1035,8 hPa 0,0 l/m 2 min 0 min 547 W/m 19,3 km/h (3 Bft) 97,87 %
24.02.2019 13:06 13,4 C 18,3 C 20,6 C 36 % 1035,8 hPa 0,0 l/m 2 min 0 min 546 W/m 16,1 km/h (3 Bft) 96,55 %
24.02.2019 13:08 13,4 C 18,3 C 20,6 C 36 % 1035,8 hPa 0,0 l/m 2 min 0 min 546 W/m 12,9 km/h (3 Bft) 97,22 %
24.02.2019 13:10 13,5 C 18,9 C 20,0 C 36 % 1035,7 hPa 0,0 l/m 2 min 0 min 545 W/m 9,7 km/h (2 Bft) 97,87 %
24.02.2019 13:12 13,6 C 18,3 C 19,4 C 35 % 1035,7 hPa 0,0 l/m 2 min 0 min 545 W/m 12,9 km/h (3 Bft) 97,87 %
24.02.2019 13:14 13,6 C 18,3 C 19,4 C 35 % 1035,7 hPa 0,0 l/m 2 min 0 min 544 W/m 16,1 km/h (3 Bft) 97,87 %
24.02.2019 13:16 13,6 C 18,9 C 20,0 C 35 % 1035,7 hPa 0,0 l/m 2 min 0 min 542 W/m 12,9 km/h (3 Bft) 97,87 %
24.02.2019 13:18 13,7 C 19,4 C 20,0 C 36 % 1035,7 hPa 0,0 l/m 2 min 0 min 544 W/m 12,9 km/h (3 Bft) 97,87 %
24.02.2019 13:20 13,7 C 18,9 C 19,4 C 35 % 1035,7 hPa 0,0 l/m 2 min 0 min 543 W/m 16,1 km/h (3 Bft) 95,65 %
24.02.2019 13:22 13,7 C 19,4 C 18,3 C 35 % 1035,7 hPa 0,0 l/m 2 min 0 min 541 W/m 6,4 km/h (2 Bft) 97,67 %
24.02.2019 13:24 13,8 C 19,4 C 17,2 C 34 % 1035,7 hPa 0,0 l/m 2 min 0 min 541 W/m 12,9 km/h (3 Bft) 97,83 %
24.02.2019 13:26 13,9 C 20,0 C 17,8 C 35 % 1035,7 hPa 0,0 l/m 2 min 0 min 540 W/m 9,7 km/h (2 Bft) 95,74 %
24.02.2019 13:28 13,9 C 19,4 C 17,2 C 34 % 1035,7 hPa 0,0 l/m 2 min 0 min 538 W/m 9,7 km/h (2 Bft) 95,74 %
24.02.2019 13:30 14,1 C 18,9 C 16,7 C 34 % 1035,7 hPa 0,0 l/m 2 min 0 min 538 W/m 12,9 km/h (3 Bft) 95,74 %
24.02.2019 13:32 14,2 C 19,4 C 16,7 C 35 % 1035,6 hPa 0,0 l/m 2 min 0 min 536 W/m 12,9 km/h (3 Bft) 94,00 %
24.02.2019 13:34 14,2 C 19,4 C 17,2 C 34 % 1035,6 hPa 0,0 l/m 2 min 0 min 536 W/m 12,9 km/h (3 Bft) 89,36 %
24.02.2019 13:36 14,2 C 20,0 C 16,1 C 34 % 1035,6 hPa 0,0 l/m 2 min 0 min 533 W/m 9,7 km/h (2 Bft) 91,67 %
24.02.2019 13:38 14,2 C 18,9 C 15,0 C 34 % 1035,6 hPa 0,0 l/m 2 min 0 min 532 W/m 9,7 km/h (2 Bft) 89,80 %
24.02.2019 13:40 14,3 C 20,0 C 14,4 C 34 % 1035,6 hPa 0,0 l/m 2 min 0 min 531 W/m 9,7 km/h (2 Bft) 93,62 %
24.02.2019 13:42 14,4 C 20,0 C 13,9 C 35 % 1035,5 hPa 0,0 l/m 2 min 0 min 529 W/m 12,9 km/h (3 Bft) 95,74 %
24.02.2019 13:44 14,4 C 18,9 C 13,3 C 34 % 1035,5 hPa 0,0 l/m 2 min 0 min 528 W/m 9,7 km/h (2 Bft) 93,62 %
24.02.2019 13:46 14,5 C 19,4 C 13,9 C 35 % 1035,4 hPa 0,0 l/m 2 min 0 min 527 W/m 12,9 km/h (3 Bft) 95,65 %
24.02.2019 13:48 14,6 C 19,4 C 13,9 C 34 % 1035,4 hPa 0,0 l/m 2 min 0 min 526 W/m 9,7 km/h (2 Bft) 95,74 %
24.02.2019 13:50 14,6 C 19,4 C 13,9 C 33 % 1035,4 hPa 0,0 l/m 2 min 0 min 523 W/m 12,9 km/h (3 Bft) 95,83 %
24.02.2019 13:52 14,7 C 19,4 C 13,9 C 32 % 1035,4 hPa 0,0 l/m 2 min 0 min 521 W/m 16,1 km/h (3 Bft) 95,74 %
24.02.2019 13:54 14,7 C 20,6 C 13,9 C 35 % 1035,4 hPa 0,0 l/m 2 min 0 min 520 W/m 12,9 km/h (3 Bft) 95,12 %
24.02.2019 13:56 14,8 C 20,6 C 13,9 C 35 % 1035,5 hPa 0,0 l/m 2 min 0 min 518 W/m 9,7 km/h (2 Bft) 95,92 %
24.02.2019 13:58 14,9 C 20,6 C 13,9 C 34 % 1035,4 hPa 0,0 l/m 2 min 0 min 515 W/m 9,7 km/h (2 Bft) 93,48 %
24.02.2019 14:00 14,9 C 19,4 C 13,9 C 34 % 1035,4 hPa 0,0 l/m 2 min 0 min 513 W/m 9,7 km/h (2 Bft) 95,74 %
24.02.2019 14:02 14,9 C 18,9 C 13,9 C 34 % 1035,4 hPa 0,0 l/m 2 min 0 min 511 W/m 12,9 km/h (3 Bft) 95,74 %
24.02.2019 14:04 14,9 C 19,4 C 13,9 C 33 % 1035,4 hPa 0,0 l/m 2 min 0 min 509 W/m 9,7 km/h (2 Bft) 97,87 %
24.02.2019 14:06 14,9 C 19,4 C 13,9 C 33 % 1035,4 hPa 0,0 l/m 2 min 0 min 507 W/m 9,7 km/h (2 Bft) 96,00 %
24.02.2019 14:08 14,9 C 18,9 C 13,9 C 33 % 1035,3 hPa 0,0 l/m 2 min 0 min 504 W/m 12,9 km/h (3 Bft) 95,65 %
24.02.2019 14:10 14,9 C 20,0 C 13,9 C 34 % 1035,3 hPa 0,0 l/m 2 min 0 min 502 W/m 9,7 km/h (2 Bft) 97,92 %
24.02.2019 14:12 14,9 C 19,4 C 13,9 C 34 % 1035,4 hPa 0,0 l/m 2 min 0 min 498 W/m 9,7 km/h (2 Bft) 97,87 %
24.02.2019 14:14 14,8 C 18,9 C 13,9 C 33 % 1035,4 hPa 0,0 l/m 2 min 0 min 497 W/m 12,9 km/h (3 Bft) 97,87 %
24.02.2019 14:16 14,9 C 19,4 C 13,9 C 34 % 1035,4 hPa 0,0 l/m 2 min 0 min 495 W/m 6,4 km/h (2 Bft) 100,00 %
24.02.2019 14:18 14,8 C 19,4 C 13,9 C 33 % 1035,3 hPa 0,0 l/m 2 min 0 min 491 W/m 12,9 km/h (3 Bft) 100,00 %
24.02.2019 14:20 14,8 C 19,4 C 13,9 C 34 % 1035,3 hPa 0,0 l/m 2 min 0 min 489 W/m 12,9 km/h (3 Bft) 97,87 %
24.02.2019 14:22 14,8 C 19,4 C 13,9 C 33 % 1035,3 hPa 0,0 l/m 2 min 0 min 487 W/m 9,7 km/h (2 Bft) 100,00 %
24.02.2019 14:24 14,8 C 18,9 C 13,9 C 34 % 1035,3 hPa 0,0 l/m 2 min 0 min 484 W/m 16,1 km/h (3 Bft) 100,00 %
24.02.2019 14:26 14,8 C 20,0 C 14,4 C 34 % 1035,3 hPa 0,0 l/m 2 min 0 min 482 W/m 6,4 km/h (2 Bft) 100,00 %
24.02.2019 14:28 14,9 C 21,1 C 14,4 C 35 % 1035,3 hPa 0,0 l/m 2 min 0 min 478 W/m 9,7 km/h (2 Bft) 100,00 %
24.02.2019 14:30 14,9 C 20,6 C 14,4 C 34 % 1035,3 hPa 0,0 l/m 2 min 0 min 475 W/m 6,4 km/h (2 Bft) 97,87 %
24.02.2019 14:32 15,0 C 21,7 C 14,4 C 36 % 1035,3 hPa 0,0 l/m 2 min 0 min 472 W/m 12,9 km/h (3 Bft) 100,00 %
24.02.2019 14:34 15,1 C 21,1 C 14,4 C 35 % 1035,4 hPa 0,0 l/m 2 min 0 min 470 W/m 6,4 km/h (2 Bft) 100,00 %
24.02.2019 14:36 15,1 C 21,1 C 14,4 C 34 % 1035,3 hPa 0,0 l/m 2 min 0 min 467 W/m 6,4 km/h (2 Bft) 100,00 %
24.02.2019 14:38 15,1 C 21,1 C 15,0 C 34 % 1035,3 hPa 0,0 l/m 2 min 0 min 463 W/m 6,4 km/h (2 Bft) 100,00 %
24.02.2019 14:40 15,2 C 20,0 C 14,4 C 33 % 1035,2 hPa 0,0 l/m 2 min 0 min 461 W/m 9,7 km/h (2 Bft) 100,00 %
24.02.2019 14:42 15,2 C 20,0 C 14,4 C 33 % 1035,2 hPa 0,0 l/m 2 min 0 min 458 W/m 9,7 km/h (2 Bft) 100,00 %
24.02.2019 14:44 15,2 C 20,6 C 14,4 C 33 % 1035,2 hPa 0,0 l/m 2 min 0 min 455 W/m 9,7 km/h (2 Bft) 100,00 %
24.02.2019 14:46 15,3 C 21,1 C 14,4 C 36 % 1035,0 hPa 0,0 l/m 2 min 0 min 451 W/m 9,7 km/h (2 Bft) 100,00 %
24.02.2019 14:48 15,3 C 20,0 C 14,4 C 33 % 1035,0 hPa 0,0 l/m 2 min 0 min 448 W/m 9,7 km/h (2 Bft) 100,00 %
24.02.2019 14:50 15,3 C 19,4 C 13,9 C 32 % 1034,9 hPa 0,0 l/m 2 min 0 min 444 W/m 12,9 km/h (3 Bft) 100,00 %
24.02.2019 14:52 15,3 C 19,4 C 14,4 C 33 % 1034,9 hPa 0,0 l/m 2 min 0 min 440 W/m 9,7 km/h (2 Bft) 100,00 %
24.02.2019 14:54 15,3 C 19,4 C 14,4 C 33 % 1034,9 hPa 0,0 l/m 2 min 0 min 437 W/m 12,9 km/h (3 Bft) 100,00 %
24.02.2019 14:56 15,3 C 20,0 C 14,4 C 34 % 1034,8 hPa 0,0 l/m 2 min 0 min 433 W/m 6,4 km/h (2 Bft) 97,83 %
24.02.2019 14:58 15,3 C 19,4 C 14,4 C 32 % 1034,7 hPa 0,0 l/m 2 min 0 min 430 W/m 9,7 km/h (2 Bft) 100,00 %
24.02.2019 15:00 15,3 C 19,4 C 14,4 C 32 % 1034,8 hPa 0,0 l/m 2 min 0 min 427 W/m 9,7 km/h (2 Bft) 100,00 %
24.02.2019 15:02 15,3 C 18,9 C 14,4 C 32 % 1034,8 hPa 0,0 l/m 2 min 0 min 423 W/m 12,9 km/h (3 Bft) 98,00 %
24.02.2019 15:04 15,3 C 18,9 C 14,4 C 32 % 1034,7 hPa 0,0 l/m 2 min 0 min 419 W/m 16,1 km/h (3 Bft) 97,87 %
24.02.2019 15:06 15,3 C 18,9 C 13,9 C 32 % 1034,7 hPa 0,0 l/m 2 min 0 min 414 W/m 9,7 km/h (2 Bft) 100,00 %
24.02.2019 15:08 15,3 C 18,9 C 13,9 C 31 % 1034,7 hPa 0,0 l/m 2 min 0 min 411 W/m 12,9 km/h (3 Bft) 100,00 %
24.02.2019 15:10 15,3 C 20,0 C 14,4 C 33 % 1034,7 hPa 0,0 l/m 2 min 0 min 407 W/m 9,7 km/h (2 Bft) 100,00 %
24.02.2019 15:12 15,3 C 19,4 C 14,4 C 32 % 1034,8 hPa 0,0 l/m 2 min 0 min 404 W/m 9,7 km/h (2 Bft) 100,00 %
24.02.2019 15:14 15,3 C 19,4 C 13,9 C 32 % 1034,8 hPa 0,0 l/m 2 min 0 min 400 W/m 9,7 km/h (2 Bft) 100,00 %
24.02.2019 15:16 15,4 C 20,0 C 13,9 C 32 % 1034,8 hPa 0,0 l/m 2 min 0 min 396 W/m 6,4 km/h (2 Bft) 100,00 %
24.02.2019 15:18 15,4 C 20,0 C 13,9 C 33 % 1034,8 hPa 0,0 l/m 2 min 0 min 392 W/m 9,7 km/h (2 Bft) 100,00 %
24.02.2019 15:20 15,4 C 19,4 C 13,9 C 32 % 1034,8 hPa 0,0 l/m 2 min 0 min 388 W/m 12,9 km/h (3 Bft) 100,00 %
24.02.2019 15:22 15,5 C 19,4 C 13,9 C 32 % 1034,8 hPa 0,0 l/m 2 min 0 min 383 W/m 6,4 km/h (2 Bft) 100,00 %
24.02.2019 15:24 15,5 C 19,4 C 13,9 C 32 % 1034,8 hPa 0,0 l/m 2 min 0 min 379 W/m 9,7 km/h (2 Bft) 100,00 %
24.02.2019 15:26 15,5 C 18,9 C 13,9 C 32 % 1034,9 hPa 0,0 l/m 2 min 0 min 375 W/m 9,7 km/h (2 Bft) 100,00 %
24.02.2019 15:28 15,5 C 19,4 C 13,9 C 31 % 1034,9 hPa 0,0 l/m 2 min 0 min 371 W/m 9,7 km/h (2 Bft) 100,00 %
24.02.2019 15:30 15,5 C 19,4 C 13,9 C 32 % 1034,9 hPa 0,0 l/m 2 min 0 min 366 W/m 6,4 km/h (2 Bft) 97,83 %
24.02.2019 15:32 15,6 C 20,6 C 13,9 C 34 % 1034,9 hPa 0,0 l/m 2 min 0 min 362 W/m 6,4 km/h (2 Bft) 97,87 %
24.02.2019 15:34 15,6 C 20,0 C 13,9 C 32 % 1034,9 hPa 0,0 l/m 2 min 0 min 358 W/m 9,7 km/h (2 Bft) 100,00 %
24.02.2019 15:36 15,7 C 19,4 C 13,9 C 31 % 1034,8 hPa 0,0 l/m 2 min 0 min 354 W/m 12,9 km/h (3 Bft) 97,87 %
24.02.2019 15:38 15,7 C 18,9 C 13,9 C 31 % 1034,8 hPa 0,0 l/m 2 min 0 min 348 W/m 9,7 km/h (2 Bft) 97,87 %
24.02.2019 15:40 15,7 C 18,9 C 13,9 C 31 % 1034,8 hPa 0,0 l/m 2 min 0 min 345 W/m 12,9 km/h (3 Bft) 100,00 %
24.02.2019 15:42 15,6 C 18,9 C 14,4 C 32 % 1034,7 hPa 0,0 l/m 2 min 0 min 340 W/m 9,7 km/h (2 Bft) 100,00 %
24.02.2019 15:44 15,6 C 18,3 C 15,0 C 31 % 1034,7 hPa 0,0 l/m 2 min 0 min 334 W/m 16,1 km/h (3 Bft) 100,00 %
24.02.2019 15:46 15,6 C 18,9 C 16,1 C 31 % 1034,6 hPa 0,0 l/m 2 min 0 min 331 W/m 12,9 km/h (3 Bft) 95,74 %
24.02.2019 15:48 15,7 C 18,9 C 16,7 C 31 % 1034,6 hPa 0,0 l/m 2 min 0 min 326 W/m 12,9 km/h (3 Bft) 97,87 %
24.02.2019 15:50 15,7 C 18,9 C 15,6 C 30 % 1034,6 hPa 0,0 l/m 2 min 0 min 322 W/m 12,9 km/h (3 Bft) 100,00 %
24.02.2019 15:52 15,7 C 18,9 C 15,0 C 30 % 1034,5 hPa 0,0 l/m 2 min 0 min 317 W/m 12,9 km/h (3 Bft) 100,00 %
24.02.2019 15:54 15,7 C 18,9 C 14,4 C 30 % 1034,6 hPa 0,0 l/m 2 min 0 min 312 W/m 6,4 km/h (2 Bft) 97,83 %
24.02.2019 15:56 15,7 C 18,9 C 14,4 C 30 % 1034,7 hPa 0,0 l/m 2 min 0 min 308 W/m 9,7 km/h (2 Bft) 97,87 %
24.02.2019 15:58 15,7 C 18,9 C 14,4 C 31 % 1034,8 hPa 0,0 l/m 2 min 0 min 303 W/m 9,7 km/h (2 Bft) 97,87 %
24.02.2019 16:00 15,7 C 18,9 C 15,0 C 31 % 1034,8 hPa 0,0 l/m 2 min 0 min 297 W/m 9,7 km/h (2 Bft) 97,87 %
24.02.2019 16:02 15,7 C 19,4 C 15,0 C 31 % 1034,9 hPa 0,0 l/m 2 min 0 min 292 W/m 3,2 km/h (1 Bft) 95,83 %
24.02.2019 16:04 15,7 C 20,0 C 14,4 C 33 % 1034,9 hPa 0,0 l/m 2 min 0 min 287 W/m 9,7 km/h (2 Bft) 95,74 %
24.02.2019 16:06 15,8 C 20,6 C 14,4 C 32 % 1034,9 hPa 0,0 l/m 2 min 0 min 281 W/m 6,4 km/h (2 Bft) 97,87 %
24.02.2019 16:08 15,8 C 20,6 C 14,4 C 34 % 1034,9 hPa 0,0 l/m 2 min 0 min 276 W/m 3,2 km/h (1 Bft) 95,74 %
24.02.2019 16:10 15,8 C 20,6 C 14,4 C 32 % 1034,9 hPa 0,0 l/m 2 min 0 min 272 W/m 6,4 km/h (2 Bft) 93,62 %
24.02.2019 16:12 15,9 C 20,0 C 15,0 C 32 % 1034,8 hPa 0,0 l/m 2 min 0 min 268 W/m 3,2 km/h (1 Bft) 93,62 %
24.02.2019 16:14 15,8 C 19,4 C 14,4 C 30 % 1034,9 hPa 0,0 l/m 2 min 0 min 262 W/m 6,4 km/h (2 Bft) 91,30 %
24.02.2019 16:16 15,8 C 19,4 C 13,9 C 31 % 1034,9 hPa 0,0 l/m 2 min 0 min 256 W/m 6,4 km/h (2 Bft) 91,49 %
24.02.2019 16:18 15,9 C 20,0 C 13,3 C 33 % 1034,9 hPa 0,0 l/m 2 min 0 min 250 W/m 6,4 km/h (2 Bft) 93,62 %
24.02.2019 16:20 15,9 C 20,6 C 12,8 C 35 % 1035,0 hPa 0,0 l/m 2 min 0 min 244 W/m 6,4 km/h (2 Bft) 91,49 %
24.02.2019 16:22 15,9 C 20,0 C 12,2 C 34 % 1035,0 hPa 0,0 l/m 2 min 0 min 239 W/m 6,4 km/h (2 Bft) 91,49 %
24.02.2019 16:24 15,9 C 20,0 C 12,2 C 33 % 1034,9 hPa 0,0 l/m 2 min 0 min 233 W/m 6,4 km/h (2 Bft) 93,62 %
24.02.2019 16:26 15,9 C 20,0 C 12,2 C 34 % 1034,9 hPa 0,0 l/m 2 min 0 min 227 W/m 6,4 km/h (2 Bft) 89,13 %
24.02.2019 16:28 15,9 C 20,6 C 11,7 C 34 % 1034,9 hPa 0,0 l/m 2 min 0 min 220 W/m 6,4 km/h (2 Bft) 93,62 %
24.02.2019 16:30 15,9 C 20,0 C 11,7 C 33 % 1034,9 hPa 0,0 l/m 2 min 0 min 215 W/m 6,4 km/h (2 Bft) 91,49 %
24.02.2019 16:32 15,9 C 20,0 C 11,7 C 34 % 1034,9 hPa 0,0 l/m 2 min 0 min 208 W/m 3,2 km/h (1 Bft) 91,49 %
24.02.2019 16:34 15,9 C 19,4 C 11,7 C 33 % 1034,8 hPa 0,0 l/m 2 min 0 min 202 W/m 0,0 km/h (0 Bft) 93,62 %
24.02.2019 16:36 15,9 C 17,8 C 11,7 C 33 % 1034,9 hPa 0,0 l/m 2 min 0 min 195 W/m 0,0 km/h (0 Bft) 93,62 %
24.02.2019 16:38 15,8 C 16,1 C 11,7 C 31 % 1034,9 hPa 0,0 l/m 2 min 0 min 169 W/m 6,4 km/h (2 Bft) 93,48 %
24.02.2019 16:40 15,7 C 15,0 C 11,7 C 31 % 1034,7 hPa 0,0 l/m 0 min 0 min 56 W/m 6,4 km/h (2 Bft) 93,62 %
24.02.2019 16:42 15,7 C 15,0 C 12,2 C 31 % 1034,7 hPa 0,0 l/m 0 min 0 min 32 W/m 9,7 km/h (2 Bft) 93,62 %
24.02.2019 16:44 15,6 C 14,4 C 12,2 C 31 % 1034,7 hPa 0,0 l/m 0 min 0 min 32 W/m 6,4 km/h (2 Bft) 95,74 %
24.02.2019 16:46 15,4 C 14,4 C 12,2 C 31 % 1034,8 hPa 0,0 l/m 0 min 0 min 32 W/m 6,4 km/h (2 Bft) 93,62 %
24.02.2019 16:48 15,4 C 14,4 C 12,2 C 31 % 1034,8 hPa 0,0 l/m 0 min 0 min 31 W/m 3,2 km/h (1 Bft) 95,65 %
24.02.2019 16:50 15,3 C 14,4 C 11,7 C 32 % 1034,8 hPa 0,0 l/m 0 min 0 min 30 W/m 3,2 km/h (1 Bft) 97,87 %
24.02.2019 16:52 15,3 C 14,4 C 11,7 C 31 % 1034,8 hPa 0,0 l/m 0 min 0 min 34 W/m 6,4 km/h (2 Bft) 95,74 %
24.02.2019 16:54 15,2 C 14,4 C 11,7 C 31 % 1034,8 hPa 0,0 l/m 0 min 0 min 46 W/m 3,2 km/h (1 Bft) 97,87 %
24.02.2019 16:56 15,2 C 14,4 C 11,1 C 31 % 1034,9 hPa 0,0 l/m 0 min 0 min 76 W/m 3,2 km/h (1 Bft) 97,87 %
24.02.2019 16:58 15,1 C 13,9 C 11,1 C 32 % 1034,9 hPa 0,0 l/m 2 min 0 min 83 W/m 3,2 km/h (1 Bft) 97,62 %
24.02.2019 17:00 15,1 C 13,9 C 11,1 C 32 % 1034,9 hPa 0,0 l/m 0 min 0 min 33 W/m 3,2 km/h (1 Bft) 97,87 %
24.02.2019 17:02 15,1 C 13,3 C 10,6 C 34 % 1034,9 hPa 0,0 l/m 0 min 0 min 27 W/m 3,2 km/h (1 Bft) 100,00 %
24.02.2019 17:04 15,0 C 13,3 C 10,6 C 33 % 1034,9 hPa 0,0 l/m 0 min 0 min 26 W/m 3,2 km/h (1 Bft) 100,00 %
24.02.2019 17:06 15,0 C 13,3 C 10,0 C 33 % 1034,9 hPa 0,0 l/m 0 min 0 min 25 W/m 3,2 km/h (1 Bft) 97,83 %
24.02.2019 17:08 14,9 C 13,3 C 10,0 C 33 % 1034,9 hPa 0,0 l/m 0 min 0 min 24 W/m 3,2 km/h (1 Bft) 100,00 %
24.02.2019 17:10 14,9 C 12,8 C 10,0 C 33 % 1034,9 hPa 0,0 l/m 0 min 0 min 23 W/m 0,0 km/h (0 Bft) 100,00 %
24.02.2019 17:12 14,8 C 12,8 C 10,0 C 35 % 1034,9 hPa 0,0 l/m 0 min 0 min 23 W/m 3,2 km/h (1 Bft) 100,00 %
24.02.2019 17:14 14,7 C 12,8 C 9,4 C 35 % 1034,9 hPa 0,0 l/m 0 min 0 min 20 W/m 0,0 km/h (0 Bft) 100,00 %
24.02.2019 17:16 14,6 C 12,2 C 9,4 C 36 % 1034,9 hPa 0,0 l/m 0 min 0 min 18 W/m 0,0 km/h (0 Bft) 100,00 %
24.02.2019 17:18 14,6 C 12,2 C 8,9 C 37 % 1035,0 hPa 0,0 l/m 0 min 0 min 18 W/m 0,0 km/h (0 Bft) 100,00 %
24.02.2019 17:20 14,5 C 12,2 C 8,9 C 38 % 1034,9 hPa 0,0 l/m 0 min 0 min 18 W/m 0,0 km/h (0 Bft) 100,00 %
24.02.2019 17:22 14,4 C 12,2 C 8,9 C 38 % 1034,9 hPa 0,0 l/m 0 min 0 min 19 W/m 0,0 km/h (0 Bft) 100,00 %
24.02.2019 17:24 14,3 C 11,7 C 8,9 C 38 % 1034,9 hPa 0,0 l/m 0 min 0 min 18 W/m 0,0 km/h (0 Bft) 100,00 %
24.02.2019 17:26 14,2 C 11,7 C 8,9 C 40 % 1034,9 hPa 0,0 l/m 0 min 0 min 18 W/m 3,2 km/h (1 Bft) 100,00 %
24.02.2019 17:28 14,2 C 11,7 C 8,3 C 40 % 1034,9 hPa 0,0 l/m 0 min 0 min 18 W/m 3,2 km/h (1 Bft) 100,00 %
24.02.2019 17:30 14,1 C 11,7 C 8,3 C 40 % 1034,9 hPa 0,0 l/m 0 min 0 min 16 W/m 0,0 km/h (0 Bft) 100,00 %
24.02.2019 17:32 14,0 C 11,1 C 8,3 C 41 % 1034,9 hPa 0,0 l/m 0 min 0 min 16 W/m 0,0 km/h (0 Bft) 100,00 %
24.02.2019 17:34 13,8 C 11,1 C 8,3 C 41 % 1034,9 hPa 0,0 l/m 0 min 0 min 14 W/m 0,0 km/h (0 Bft) 100,00 %
24.02.2019 17:36 13,7 C 11,1 C 7,8 C 42 % 1034,9 hPa 0,0 l/m 0 min 0 min 13 W/m 0,0 km/h (0 Bft) 97,87 %
24.02.2019 17:38 13,6 C 10,6 C 7,8 C 43 % 1034,9 hPa 0,0 l/m 0 min 0 min 12 W/m 0,0 km/h (0 Bft) 100,00 %
24.02.2019 17:40 13,4 C 10,6 C 7,8 C 43 % 1034,9 hPa 0,0 l/m 0 min 0 min 12 W/m 0,0 km/h (0 Bft) 97,83 %
24.02.2019 17:42 13,3 C 10,6 C 7,8 C 43 % 1034,9 hPa 0,0 l/m 0 min 0 min 11 W/m 0,0 km/h (0 Bft) 100,00 %
24.02.2019 17:44 13,3 C 10,0 C 7,2 C 44 % 1034,9 hPa 0,0 l/m 0 min 0 min 11 W/m 0,0 km/h (0 Bft) 97,87 %
24.02.2019 17:46 13,2 C 10,0 C 7,2 C 44 % 1034,9 hPa 0,0 l/m 0 min 0 min 9 W/m 0,0 km/h (0 Bft) 100,00 %
24.02.2019 17:48 13,1 C 10,0 C 7,2 C 44 % 1034,9 hPa 0,0 l/m 0 min 0 min 9 W/m 0,0 km/h (0 Bft) 97,83 %
24.02.2019 17:50 12,9 C 10,0 C 7,2 C 44 % 1034,9 hPa 0,0 l/m 0 min 0 min 9 W/m 0,0 km/h (0 Bft) 100,00 %
24.02.2019 17:52 12,8 C 10,0 C 7,2 C 44 % 1034,9 hPa 0,0 l/m 0 min 0 min 9 W/m 0,0 km/h (0 Bft) 100,00 %
24.02.2019 17:54 12,6 C 9,4 C 7,2 C 45 % 1034,9 hPa 0,0 l/m 0 min 0 min 8 W/m 0,0 km/h (0 Bft) 100,00 %
24.02.2019 17:56 12,5 C 9,4 C 6,7 C 45 % 1035,0 hPa 0,0 l/m 0 min 0 min 7 W/m 0,0 km/h (0 Bft) 97,87 %
24.02.2019 17:58 12,4 C 9,4 C 6,7 C 45 % 1034,9 hPa 0,0 l/m 0 min 0 min 7 W/m 0,0 km/h (0 Bft) 100,00 %
24.02.2019 18:00 12,2 C 9,4 C 6,7 C 45 % 1034,9 hPa 0,0 l/m 0 min 0 min 7 W/m 0,0 km/h (0 Bft) 100,00 %
24.02.2019 18:02 12,2 C 9,4 C 6,7 C 45 % 1034,9 hPa 0,0 l/m 0 min 0 min 6 W/m 0,0 km/h (0 Bft) 97,87 %
24.02.2019 18:04 12,1 C 9,4 C 6,7 C 45 % 1034,9 hPa 0,0 l/m 0 min 0 min 5 W/m 0,0 km/h (0 Bft) 97,87 %
24.02.2019 18:08 11,8 C 8,9 C 6,1 C 45 % 1034,9 hPa 0,0 l/m 0 min 0 min 4 W/m 0,0 km/h (0 Bft) 97,87 %
24.02.2019 18:10 11,7 C 8,9 C 6,1 C 45 % 1034,9 hPa 0,0 l/m 0 min 0 min 0 W/m 0,0 km/h (0 Bft) 95,65 %
24.02.2019 18:12 11,6 C 8,9 C 6,1 C 47 % 1034,9 hPa 0,0 l/m 0 min 0 min 0 W/m 0,0 km/h (0 Bft) 97,87 %
24.02.2019 18:14 11,5 C 8,9 C 6,1 C 48 % 1034,9 hPa 0,0 l/m 0 min 0 min 0 W/m 0,0 km/h (0 Bft) 97,87 %
24.02.2019 18:16 11,4 C 9,4 C 6,1 C 47 % 1034,9 hPa 0,0 l/m 0 min 0 min 0 W/m 3,2 km/h (1 Bft) 97,87 %
24.02.2019 18:18 11,3 C 9,4 C 6,1 C 45 % 1034,9 hPa 0,0 l/m 0 min 0 min 0 W/m 3,2 km/h (1 Bft) 97,87 %
24.02.2019 18:20 11,2 C 8,9 C 5,6 C 46 % 1034,9 hPa 0,0 l/m 0 min 0 min 0 W/m 0,0 km/h (0 Bft) 97,87 %
24.02.2019 18:22 11,1 C 8,9 C 5,6 C 46 % 1034,9 hPa 0,0 l/m 0 min 0 min 0 W/m 0,0 km/h (0 Bft) 97,83 %
24.02.2019 18:24 11,0 C 8,3 C 5,6 C 46 % 1034,9 hPa 0,0 l/m 0 min 0 min 0 W/m 0,0 km/h (0 Bft) 97,87 %
24.02.2019 18:26 10,9 C 8,3 C 5,6 C 47 % 1034,9 hPa 0,0 l/m 0 min 0 min 0 W/m 0,0 km/h (0 Bft) 95,74 %
24.02.2019 18:28 10,8 C 8,3 C 5,6 C 47 % 1035,0 hPa 0,0 l/m 0 min 0 min 0 W/m 0,0 km/h (0 Bft) 97,87 %
24.02.2019 18:30 10,7 C 8,3 C 5,6 C 48 % 1034,9 hPa 0,0 l/m 0 min 0 min 0 W/m 0,0 km/h (0 Bft) 100,00 %
24.02.2019 18:32 10,7 C 7,8 C 5,6 C 49 % 1034,9 hPa 0,0 l/m 0 min 0 min 0 W/m 0,0 km/h (0 Bft) 95,74 %
24.02.2019 18:34 10,6 C 7,8 C 5,6 C 49 % 1034,9 hPa 0,0 l/m 0 min 0 min 0 W/m 0,0 km/h (0 Bft) 100,00 %
24.02.2019 18:36 10,4 C 7,8 C 5,6 C 50 % 1034,9 hPa 0,0 l/m 0 min 0 min 0 W/m 0,0 km/h (0 Bft) 100,00 %
24.02.2019 18:38 10,3 C 7,8 C 5,0 C 50 % 1035,0 hPa 0,0 l/m 0 min 0 min 0 W/m 0,0 km/h (0 Bft) 100,00 %
24.02.2019 18:40 10,2 C 7,8 C 5,0 C 50 % 1034,9 hPa 0,0 l/m 0 min 0 min 0 W/m 0,0 km/h (0 Bft) 100,00 %
24.02.2019 18:42 10,2 C 7,8 C 5,0 C 50 % 1034,9 hPa 0,0 l/m 0 min 0 min 0 W/m 0,0 km/h (0 Bft) 100,00 %
24.02.2019 18:44 10,1 C 7,8 C 5,0 C 50 % 1035,0 hPa 0,0 l/m 0 min 0 min 0 W/m 0,0 km/h (0 Bft) 100,00 %
24.02.2019 18:46 10,0 C 7,2 C 5,0 C 50 % 1035,0 hPa 0,0 l/m 0 min 0 min 0 W/m 0,0 km/h (0 Bft) 97,83 %
24.02.2019 18:48 9,9 C 7,2 C 5,0 C 50 % 1035,0 hPa 0,0 l/m 0 min 0 min 0 W/m 0,0 km/h (0 Bft) 100,00 %
24.02.2019 18:50 9,8 C 7,2 C 5,0 C 50 % 1035,0 hPa 0,0 l/m 0 min 0 min 0 W/m 0,0 km/h (0 Bft) 100,00 %
24.02.2019 18:52 9,7 C 7,2 C 5,0 C 50 % 1035,0 hPa 0,0 l/m 0 min 0 min 0 W/m 0,0 km/h (0 Bft) 100,00 %
24.02.2019 18:54 9,6 C 7,2 C 5,0 C 50 % 1035,0 hPa 0,0 l/m 0 min 0 min 0 W/m 3,2 km/h (1 Bft) 100,00 %
24.02.2019 18:56 9,5 C 7,2 C 5,0 C 50 % 1035,0 hPa 0,0 l/m 0 min 0 min 0 W/m 3,2 km/h (1 Bft) 100,00 %
24.02.2019 18:58 9,4 C 7,2 C 5,0 C 50 % 1034,9 hPa 0,0 l/m 0 min 0 min 0 W/m 3,2 km/h (1 Bft) 100,00 %
24.02.2019 19:00 9,4 C 6,7 C 4,4 C 50 % 1034,9 hPa 0,0 l/m 0 min 0 min 0 W/m 0,0 km/h (0 Bft) 100,00 %
24.02.2019 19:02 9,3 C 6,7 C 4,4 C 50 % 1035,0 hPa 0,0 l/m 0 min 0 min 0 W/m 0,0 km/h (0 Bft) 100,00 %
24.02.2019 19:04 9,2 C 6,7 C 4,4 C 50 % 1034,8 hPa 0,0 l/m 0 min 0 min 0 W/m 0,0 km/h (0 Bft) 100,00 %
24.02.2019 19:06 9,1 C 6,7 C 4,4 C 51 % 1035,0 hPa 0,0 l/m 0 min 0 min 0 W/m 0,0 km/h (0 Bft) 100,00 %
24.02.2019 19:08 9,1 C 6,7 C 4,4 C 52 % 1035,0 hPa 0,0 l/m 0 min 0 min 0 W/m 0,0 km/h (0 Bft) 100,00 %
24.02.2019 19:10 8,9 C 6,1 C 4,4 C 52 % 1035,0 hPa 0,0 l/m 0 min 0 min 0 W/m 0,0 km/h (0 Bft) 100,00 %
24.02.2019 19:12 8,9 C 6,1 C 4,4 C 53 % 1034,9 hPa 0,0 l/m 0 min 0 min 0 W/m 0,0 km/h (0 Bft) 100,00 %
24.02.2019 19:14 8,8 C 6,7 C 4,4 C 52 % 1035,0 hPa 0,0 l/m 0 min 0 min 0 W/m 0,0 km/h (0 Bft) 100,00 %
24.02.2019 19:16 8,7 C 6,7 C 4,4 C 52 % 1035,0 hPa 0,0 l/m 0 min 0 min 0 W/m 0,0 km/h (0 Bft) 100,00 %
24.02.2019 19:18 8,7 C 6,7 C 4,4 C 52 % 1035,0 hPa 0,0 l/m 0 min 0 min 0 W/m 0,0 km/h (0 Bft) 97,87 %
24.02.2019 19:20 8,6 C 6,1 C 4,4 C 52 % 1035,0 hPa 0,0 l/m 0 min 0 min 0 W/m 0,0 km/h (0 Bft) 97,83 %
24.02.2019 19:22 8,5 C 6,1 C 4,4 C 52 % 1035,0 hPa 0,0 l/m 0 min 0 min 0 W/m 0,0 km/h (0 Bft) 95,74 %
24.02.2019 19:24 8,4 C 6,1 C 3,9 C 53 % 1034,9 hPa 0,0 l/m 0 min 0 min 0 W/m 0,0 km/h (0 Bft) 95,74 %
24.02.2019 19:26 8,4 C 6,1 C 3,9 C 53 % 1034,9 hPa 0,0 l/m 0 min 0 min 0 W/m 0,0 km/h (0 Bft) 95,74 %
24.02.2019 19:28 8,3 C 6,7 C 3,9 C 53 % 1034,9 hPa 0,0 l/m 0 min 0 min 0 W/m 0,0 km/h (0 Bft) 97,87 %
24.02.2019 19:30 8,3 C 6,7 C 3,9 C 52 % 1035,0 hPa 0,0 l/m 0 min 0 min 0 W/m 0,0 km/h (0 Bft) 93,62 %
24.02.2019 19:32 8,2 C 6,7 C 3,9 C 52 % 1035,0 hPa 0,0 l/m 0 min 0 min 0 W/m 0,0 km/h (0 Bft) 95,65 %
24.02.2019 19:34 8,2 C 6,7 C 3,9 C 52 % 1034,9 hPa 0,0 l/m 0 min 0 min 0 W/m 0,0 km/h (0 Bft) 95,74 %
24.02.2019 19:36 8,2 C 6,7 C 3,9 C 52 % 1034,8 hPa 0,0 l/m 0 min 0 min 0 W/m 0,0 km/h (0 Bft) 95,74 %
24.02.2019 19:38 8,1 C 6,1 C 3,9 C 53 % 1034,9 hPa 0,0 l/m 0 min 0 min 0 W/m 0,0 km/h (0 Bft) 91,49 %
24.02.2019 19:40 8,1 C 6,1 C 3,9 C 53 % 1034,8 hPa 0,0 l/m 0 min 0 min 0 W/m 0,0 km/h (0 Bft) 93,62 %
24.02.2019 19:42 8,0 C 6,1 C 3,9 C 54 % 1034,9 hPa 0,0 l/m 0 min 0 min 0 W/m 0,0 km/h (0 Bft) 93,62 %
24.02.2019 19:44 7,9 C 6,1 C 3,9 C 54 % 1034,9 hPa 0,0 l/m 0 min 0 min 0 W/m 0,0 km/h (0 Bft) 95,65 %
24.02.2019 19:46 7,9 C 6,7 C 3,9 C 54 % 1034,8 hPa 0,0 l/m 0 min 0 min 0 W/m 0,0 km/h (0 Bft) 93,62 %
24.02.2019 19:48 7,8 C 6,7 C 3,9 C 53 % 1034,8 hPa 0,0 l/m 0 min 0 min 0 W/m 0,0 km/h (0 Bft) 93,62 %
24.02.2019 19:50 7,8 C 6,1 C 3,9 C 54 % 1034,8 hPa 0,0 l/m 0 min 0 min 0 W/m 0,0 km/h (0 Bft) 95,74 %
24.02.2019 19:52 7,8 C 6,1 C 3,9 C 54 % 1034,9 hPa 0,0 l/m 0 min 0 min 0 W/m 0,0 km/h (0 Bft) 95,74 %
24.02.2019 19:54 7,7 C 5,6 C 3,9 C 55 % 1034,9 hPa 0,0 l/m 0 min 0 min 0 W/m 0,0 km/h (0 Bft) 95,65 %
24.02.2019 19:56 7,7 C 5,6 C 3,9 C 55 % 1034,9 hPa 0,0 l/m 0 min 0 min 0 W/m 0,0 km/h (0 Bft) 93,62 %
24.02.2019 19:58 7,6 C 5,6 C 3,9 C 55 % 1034,9 hPa 0,0 l/m 0 min 0 min 0 W/m 0,0 km/h (0 Bft) 95,74 %
24.02.2019 20:00 7,6 C 5,6 C 3,3 C 55 % 1034,9 hPa 0,0 l/m 0 min 0 min 0 W/m 0,0 km/h (0 Bft) 95,74 %
24.02.2019 20:02 7,5 C 5,6 C 3,3 C 55 % 1035,0 hPa 0,0 l/m 0 min 0 min 0 W/m 0,0 km/h (0 Bft) 97,87 %
24.02.2019 20:04 7,4 C 5,6 C 3,3 C 55 % 1035,0 hPa 0,0 l/m 0 min 0 min 0 W/m 0,0 km/h (0 Bft) 97,87 %
24.02.2019 20:06 7,4 C 5,6 C 3,3 C 55 % 1035,0 hPa 0,0 l/m 0 min 0 min 0 W/m 0,0 km/h (0 Bft) 97,83 %
24.02.2019 20:08 7,3 C 5,6 C 3,3 C 55 % 1035,1 hPa 0,0 l/m 0 min 0 min 0 W/m 0,0 km/h (0 Bft) 95,74 %
24.02.2019 20:10 7,3 C 5,0 C 3,3 C 56 % 1035,0 hPa 0,0 l/m 0 min 0 min 0 W/m 0,0 km/h (0 Bft) 97,87 %
24.02.2019 20:12 7,2 C 5,0 C 3,3 C 56 % 1035,1 hPa 0,0 l/m 0 min 0 min 0 W/m 0,0 km/h (0 Bft) 95,74 %
24.02.2019 20:14 7,2 C 5,6 C 3,3 C 56 % 1035,2 hPa 0,0 l/m 0 min 0 min 0 W/m 0,0 km/h (0 Bft) 95,74 %
24.02.2019 20:16 7,2 C 5,6 C 3,3 C 56 % 1035,1 hPa 0,0 l/m 0 min 0 min 0 W/m 0,0 km/h (0 Bft) 91,49 %
24.02.2019 20:18 7,1 C 5,6 C 3,3 C 56 % 1035,2 hPa 0,0 l/m 0 min 0 min 0 W/m 0,0 km/h (0 Bft) 95,65 %
24.02.2019 20:20 7,1 C 5,6 C 3,3 C 55 % 1035,2 hPa 0,0 l/m 0 min 0 min 0 W/m 0,0 km/h (0 Bft) 95,74 %
24.02.2019 20:22 7,0 C 5,6 C 3,3 C 55 % 1035,2 hPa 0,0 l/m 0 min 0 min 0 W/m 0,0 km/h (0 Bft) 95,74 %
24.02.2019 20:24 7,0 C 5,6 C 3,3 C 55 % 1035,3 hPa 0,0 l/m 0 min 0 min 0 W/m 0,0 km/h (0 Bft) 93,62 %
24.02.2019 20:26 6,9 C 5,6 C 3,3 C 55 % 1035,3 hPa 0,0 l/m 0 min 0 min 0 W/m 0,0 km/h (0 Bft) 97,87 %
24.02.2019 20:28 6,9 C 5,6 C 3,3 C 55 % 1035,2 hPa 0,0 l/m 0 min 0 min 0 W/m 0,0 km/h (0 Bft) 97,87 %
24.02.2019 20:30 6,9 C 5,6 C 3,3 C 55 % 1035,3 hPa 0,0 l/m 0 min 0 min 0 W/m 0,0 km/h (0 Bft) 97,83 %
24.02.2019 20:32 6,8 C 5,6 C 3,3 C 56 % 1035,4 hPa 0,0 l/m 0 min 0 min 0 W/m 0,0 km/h (0 Bft) 95,74 %
24.02.2019 20:34 6,8 C 5,6 C 2,8 C 56 % 1035,4 hPa 0,0 l/m 0 min 0 min 0 W/m 0,0 km/h (0 Bft) 97,87 %
24.02.2019 20:36 6,8 C 5,6 C 2,8 C 56 % 1035,4 hPa 0,0 l/m 0 min 0 min 0 W/m 0,0 km/h (0 Bft) 97,87 %
24.02.2019 20:38 6,7 C 5,6 C 2,8 C 56 % 1035,4 hPa 0,0 l/m 0 min 0 min 0 W/m 0,0 km/h (0 Bft) 97,87 %
24.02.2019 20:40 6,7 C 5,6 C 2,8 C 56 % 1035,5 hPa 0,0 l/m 0 min 0 min 0 W/m 0,0 km/h (0 Bft) 97,87 %
24.02.2019 20:42 6,6 C 5,0 C 2,8 C 56 % 1035,6 hPa 0,0 l/m 0 min 0 min 0 W/m 0,0 km/h (0 Bft) 97,83 %
24.02.2019 20:44 6,6 C 5,0 C 2,8 C 56 % 1035,5 hPa 0,0 l/m 0 min 0 min 0 W/m 0,0 km/h (0 Bft) 97,87 %
24.02.2019 20:46 6,6 C 5,0 C 2,8 C 57 % 1035,5 hPa 0,0 l/m 0 min 0 min 0 W/m 0,0 km/h (0 Bft) 97,87 %
24.02.2019 20:48 6,5 C 5,0 C 2,8 C 57 % 1035,5 hPa 0,0 l/m 0 min 0 min 0 W/m 0,0 km/h (0 Bft) 95,74 %
24.02.2019 20:50 6,4 C 5,0 C 2,8 C 57 % 1035,6 hPa 0,0 l/m 0 min 0 min 0 W/m 0,0 km/h (0 Bft) 97,87 %
24.02.2019 20:52 6,4 C 5,0 C 2,8 C 57 % 1035,6 hPa 0,0 l/m 0 min 0 min 0 W/m 0,0 km/h (0 Bft) 97,87 %
24.02.2019 20:54 6,4 C 5,0 C 2,8 C 57 % 1035,6 hPa 0,0 l/m 0 min 0 min 0 W/m 0,0 km/h (0 Bft) 91,30 %
24.02.2019 20:56 6,4 C 5,0 C 2,8 C 57 % 1035,6 hPa 0,0 l/m 0 min 0 min 0 W/m 0,0 km/h (0 Bft) 95,74 %
24.02.2019 20:58 6,3 C 5,0 C 2,8 C 57 % 1035,6 hPa 0,0 l/m 0 min 0 min 0 W/m 0,0 km/h (0 Bft) 95,74 %
24.02.2019 21:00 6,3 C 4,4 C 2,8 C 57 % 1035,7 hPa 0,0 l/m 0 min 0 min 0 W/m 0,0 km/h (0 Bft) 95,74 %
24.02.2019 21:02 6,2 C 4,4 C 2,8 C 58 % 1035,7 hPa 0,0 l/m 0 min 0 min 0 W/m 0,0 km/h (0 Bft) 95,74 %
24.02.2019 21:04 6,2 C 4,4 C 2,8 C 58 % 1035,7 hPa 0,0 l/m 0 min 0 min 0 W/m 0,0 km/h (0 Bft) 95,65 %
24.02.2019 21:06 6,2 C 4,4 C 2,8 C 58 % 1035,7 hPa 0,0 l/m 0 min 0 min 0 W/m 0,0 km/h (0 Bft) 95,74 %
24.02.2019 21:08 6,1 C 4,4 C 2,8 C 58 % 1035,7 hPa 0,0 l/m 0 min 0 min 0 W/m 0,0 km/h (0 Bft) 95,74 %
24.02.2019 21:10 6,1 C 4,4 C 2,8 C 58 % 1035,7 hPa 0,0 l/m 0 min 0 min 0 W/m 0,0 km/h (0 Bft) 93,62 %
24.02.2019 21:12 6,1 C 4,4 C 2,8 C 59 % 1035,6 hPa 0,0 l/m 0 min 0 min 0 W/m 0,0 km/h (0 Bft) 93,62 %
24.02.2019 21:14 6,0 C 5,0 C 2,8 C 59 % 1035,6 hPa 0,0 l/m 0 min 0 min 0 W/m 0,0 km/h (0 Bft) 93,62 %
24.02.2019 21:16 5,9 C 5,0 C 2,8 C 59 % 1035,6 hPa 0,0 l/m 0 min 0 min 0 W/m 0,0 km/h (0 Bft) 95,65 %
24.02.2019 21:18 5,9 C 5,0 C 2,8 C 60 % 1035,6 hPa 0,0 l/m 0 min 0 min 0 W/m 0,0 km/h (0 Bft) 95,74 %
24.02.2019 21:20 5,9 C 5,0 C 2,8 C 60 % 1035,6 hPa 0,0 l/m 0 min 0 min 0 W/m 0,0 km/h (0 Bft) 95,74 %
24.02.2019 21:22 5,8 C 5,0 C 2,8 C 60 % 1035,6 hPa 0,0 l/m 0 min 0 min 0 W/m 0,0 km/h (0 Bft) 93,62 %
24.02.2019 21:24 5,8 C 5,0 C 2,8 C 61 % 1035,6 hPa 0,0 l/m 0 min 0 min 0 W/m 0,0 km/h (0 Bft) 95,74 %
24.02.2019 21:26 5,8 C 5,0 C 2,8 C 62 % 1035,6 hPa 0,0 l/m 0 min 0 min 0 W/m 0,0 km/h (0 Bft) 95,74 %
24.02.2019 21:28 5,8 C 5,0 C 2,8 C 61 % 1035,6 hPa 0,0 l/m 0 min 0 min 0 W/m 0,0 km/h (0 Bft) 97,83 %
24.02.2019 21:30 5,7 C 5,0 C 2,8 C 61 % 1035,6 hPa 0,0 l/m 0 min 0 min 0 W/m 0,0 km/h (0 Bft) 100,00 %
24.02.2019 21:32 5,7 C 5,0 C 2,8 C 61 % 1035,6 hPa 0,0 l/m 0 min 0 min 0 W/m 0,0 km/h (0 Bft) 100,00 %
24.02.2019 21:34 5,7 C 5,0 C 2,8 C 61 % 1035,6 hPa 0,0 l/m 0 min 0 min 0 W/m 0,0 km/h (0 Bft) 100,00 %
24.02.2019 21:36 5,6 C 4,4 C 2,8 C 61 % 1035,6 hPa 0,0 l/m 0 min 0 min 0 W/m 0,0 km/h (0 Bft) 100,00 %
24.02.2019 21:38 5,6 C 4,4 C 2,8 C 61 % 1035,6 hPa 0,0 l/m 0 min 0 min 0 W/m 0,0 km/h (0 Bft) 97,87 %
24.02.2019 21:40 5,6 C 4,4 C 2,2 C 61 % 1035,6 hPa 0,0 l/m 0 min 0 min 0 W/m 0,0 km/h (0 Bft) 100,00 %
24.02.2019 21:42 5,5 C 4,4 C 2,2 C 61 % 1035,6 hPa 0,0 l/m 0 min 0 min 0 W/m 0,0 km/h (0 Bft) 100,00 %
24.02.2019 21:44 5,5 C 5,0 C 2,2 C 60 % 1035,5 hPa 0,0 l/m 0 min 0 min 0 W/m 0,0 km/h (0 Bft) 97,87 %
24.02.2019 21:46 5,5 C 5,0 C 2,2 C 60 % 1035,5 hPa 0,0 l/m 0 min 0 min 0 W/m 0,0 km/h (0 Bft) 100,00 %
24.02.2019 21:48 5,4 C 5,0 C 2,2 C 60 % 1035,5 hPa 0,0 l/m 0 min 0 min 0 W/m 0,0 km/h (0 Bft) 97,87 %
24.02.2019 21:50 5,4 C 5,6 C 2,2 C 60 % 1035,5 hPa 0,0 l/m 0 min 0 min 0 W/m 6,4 km/h (2 Bft) 100,00 %
24.02.2019 21:52 5,4 C 6,7 C 2,2 C 59 % 1035,4 hPa 0,0 l/m 0 min 0 min 0 W/m 6,4 km/h (2 Bft) 100,00 %
24.02.2019 21:54 5,4 C 7,2 C 2,8 C 58 % 1035,3 hPa 0,0 l/m 0 min 0 min 0 W/m 6,4 km/h (2 Bft) 100,00 %
24.02.2019 21:56 5,4 C 7,2 C 2,8 C 57 % 1035,3 hPa 0,0 l/m 0 min 0 min 0 W/m 3,2 km/h (1 Bft) 100,00 %
24.02.2019 21:58 5,4 C 7,2 C 2,8 C 57 % 1035,3 hPa 0,0 l/m 0 min 0 min 0 W/m 6,4 km/h (2 Bft) 97,87 %
24.02.2019 22:00 5,5 C 7,2 C 2,8 C 57 % 1035,3 hPa 0,0 l/m 0 min 0 min 0 W/m 3,2 km/h (1 Bft) 100,00 %
24.02.2019 22:02 5,5 C 7,2 C 2,8 C 57 % 1035,4 hPa 0,0 l/m 0 min 0 min 0 W/m 3,2 km/h (1 Bft) 100,00 %
24.02.2019 22:04 5,6 C 7,2 C 2,8 C 57 % 1035,4 hPa 0,0 l/m 0 min 0 min 0 W/m 3,2 km/h (1 Bft) 100,00 %
24.02.2019 22:06 5,6 C 7,2 C 2,8 C 57 % 1035,4 hPa 0,0 l/m 0 min 0 min 0 W/m 0,0 km/h (0 Bft) 100,00 %
24.02.2019 22:08 5,7 C 7,2 C 2,8 C 57 % 1035,4 hPa 0,0 l/m 0 min 0 min 0 W/m 0,0 km/h (0 Bft) 100,00 %
24.02.2019 22:10 5,7 C 7,2 C 2,8 C 57 % 1035,4 hPa 0,0 l/m 0 min 0 min 0 W/m 3,2 km/h (1 Bft) 100,00 %
24.02.2019 22:12 5,8 C 6,7 C 2,8 C 57 % 1035,5 hPa 0,0 l/m 0 min 0 min 0 W/m 3,2 km/h (1 Bft) 100,00 %
24.02.2019 22:14 5,8 C 6,7 C 2,8 C 57 % 1035,5 hPa 0,0 l/m 0 min 0 min 0 W/m 3,2 km/h (1 Bft) 100,00 %
24.02.2019 22:16 5,9 C 6,7 C 2,8 C 57 % 1035,5 hPa 0,0 l/m 0 min 0 min 0 W/m 0,0 km/h (0 Bft) 100,00 %
24.02.2019 22:18 5,9 C 6,7 C 2,8 C 57 % 1035,6 hPa 0,0 l/m 0 min 0 min 0 W/m 3,2 km/h (1 Bft) 100,00 %
24.02.2019 22:20 5,9 C 6,7 C 2,8 C 57 % 1035,5 hPa 0,0 l/m 0 min 0 min 0 W/m 3,2 km/h (1 Bft) 97,87 %
24.02.2019 22:22 6,0 C 6,7 C 2,8 C 56 % 1035,6 hPa 0,0 l/m 0 min 0 min 0 W/m 6,4 km/h (2 Bft) 100,00 %
24.02.2019 22:24 6,1 C 6,7 C 2,8 C 56 % 1035,6 hPa 0,0 l/m 0 min 0 min 0 W/m 3,2 km/h (1 Bft) 95,74 %
24.02.2019 22:26 6,1 C 7,2 C 2,8 C 56 % 1035,6 hPa 0,0 l/m 0 min 0 min 0 W/m 3,2 km/h (1 Bft) 97,83 %
24.02.2019 22:28 6,2 C 7,2 C 2,8 C 56 % 1035,6 hPa 0,0 l/m 0 min 0 min 0 W/m 3,2 km/h (1 Bft) 95,74 %
24.02.2019 22:30 6,2 C 7,2 C 2,8 C 55 % 1035,6 hPa 0,0 l/m 0 min 0 min 0 W/m 3,2 km/h (1 Bft) 97,87 %
24.02.2019 22:32 6,3 C 7,2 C 2,8 C 55 % 1035,6 hPa 0,0 l/m 0 min 0 min 0 W/m 3,2 km/h (1 Bft) 100,00 %
24.02.2019 22:34 6,3 C 7,8 C 2,8 C 55 % 1035,5 hPa 0,0 l/m 0 min 0 min 0 W/m 3,2 km/h (1 Bft) 100,00 %
24.02.2019 22:36 6,4 C 7,8 C 2,8 C 55 % 1035,5 hPa 0,0 l/m 0 min 0 min 0 W/m 6,4 km/h (2 Bft) 97,87 %
24.02.2019 22:38 6,4 C 7,8 C 2,8 C 55 % 1035,5 hPa 0,0 l/m 0 min 0 min 0 W/m 6,4 km/h (2 Bft) 93,48 %
24.02.2019 22:40 6,5 C 7,8 C 2,8 C 55 % 1035,5 hPa 0,0 l/m 0 min 0 min 0 W/m 9,7 km/h (2 Bft) 95,74 %
24.02.2019 22:42 6,6 C 7,8 C 3,3 C 54 % 1035,5 hPa 0,0 l/m 0 min 0 min 0 W/m 6,4 km/h (2 Bft) 95,74 %
24.02.2019 22:44 6,6 C 7,8 C 4,4 C 54 % 1035,5 hPa 0,0 l/m 0 min 0 min 0 W/m 6,4 km/h (2 Bft) 93,62 %
24.02.2019 22:46 6,7 C 7,8 C 4,4 C 54 % 1035,5 hPa 0,0 l/m 0 min 0 min 0 W/m 6,4 km/h (2 Bft) 95,74 %
24.02.2019 22:48 6,8 C 7,8 C 5,6 C 54 % 1035,5 hPa 0,0 l/m 0 min 0 min 0 W/m 9,7 km/h (2 Bft) 93,62 %
24.02.2019 22:50 6,9 C 7,8 C 5,6 C 54 % 1035,5 hPa 0,0 l/m 0 min 0 min 0 W/m 6,4 km/h (2 Bft) 95,65 %
24.02.2019 22:52 7,0 C 7,8 C 5,6 C 53 % 1035,5 hPa 0,0 l/m 0 min 0 min 0 W/m 6,4 km/h (2 Bft) 93,62 %
24.02.2019 22:54 7,1 C 7,8 C 6,1 C 53 % 1035,5 hPa 0,0 l/m 0 min 0 min 0 W/m 6,4 km/h (2 Bft) 95,74 %
24.02.2019 22:56 7,1 C 7,8 C 6,1 C 53 % 1035,5 hPa 0,0 l/m 0 min 0 min 0 W/m 6,4 km/h (2 Bft) 95,74 %
24.02.2019 22:58 7,2 C 7,8 C 6,1 C 53 % 1035,5 hPa 0,0 l/m 0 min 0 min 0 W/m 6,4 km/h (2 Bft) 90,24 %
24.02.2019 23:00 7,3 C 7,8 C 6,1 C 53 % 1035,5 hPa 0,0 l/m 0 min 0 min 0 W/m 6,4 km/h (2 Bft) 95,74 %
24.02.2019 23:02 7,4 C 7,8 C 6,1 C 53 % 1035,5 hPa 0,0 l/m 0 min 0 min 0 W/m 9,7 km/h (2 Bft) 93,62 %
24.02.2019 23:04 7,4 C 7,2 C 6,1 C 53 % 1035,4 hPa 0,0 l/m 0 min 0 min 0 W/m 6,4 km/h (2 Bft) 98,11 %
24.02.2019 23:06 7,4 C 7,2 C 6,1 C 52 % 1035,4 hPa 0,0 l/m 0 min 0 min 0 W/m 6,4 km/h (2 Bft) 95,74 %
24.02.2019 23:08 7,5 C 7,2 C 5,6 C 52 % 1035,4 hPa 0,0 l/m 0 min 0 min 0 W/m 6,4 km/h (2 Bft) 93,62 %
24.02.2019 23:10 7,5 C 7,2 C 5,6 C 52 % 1035,4 hPa 0,0 l/m 0 min 0 min 0 W/m 6,4 km/h (2 Bft) 95,74 %
24.02.2019 23:12 7,6 C 7,2 C 6,1 C 52 % 1035,4 hPa 0,0 l/m 0 min 0 min 0 W/m 6,4 km/h (2 Bft) 97,83 %
24.02.2019 23:14 7,6 C 7,2 C 5,6 C 52 % 1035,4 hPa 0,0 l/m 0 min 0 min 0 W/m 3,2 km/h (1 Bft) 97,87 %
24.02.2019 23:16 7,6 C 7,2 C 6,1 C 52 % 1035,4 hPa 0,0 l/m 0 min 0 min 0 W/m 9,7 km/h (2 Bft) 95,74 %
24.02.2019 23:18 7,6 C 7,2 C 5,6 C 51 % 1035,5 hPa 0,0 l/m 0 min 0 min 0 W/m 3,2 km/h (1 Bft) 97,87 %
24.02.2019 23:20 7,7 C 7,2 C 5,6 C 51 % 1035,4 hPa 0,0 l/m 0 min 0 min 0 W/m 3,2 km/h (1 Bft) 97,87 %
24.02.2019 23:22 7,7 C 7,2 C 6,1 C 51 % 1035,4 hPa 0,0 l/m 0 min 0 min 0 W/m 6,4 km/h (2 Bft) 97,87 %
24.02.2019 23:24 7,7 C 7,2 C 5,6 C 51 % 1035,4 hPa 0,0 l/m 0 min 0 min 0 W/m 6,4 km/h (2 Bft) 97,83 %
24.02.2019 23:26 7,7 C 7,2 C 5,6 C 51 % 1035,4 hPa 0,0 l/m 0 min 0 min 0 W/m 6,4 km/h (2 Bft) 100,00 %
24.02.2019 23:28 7,7 C 6,7 C 5,0 C 52 % 1035,4 hPa 0,0 l/m 0 min 0 min 0 W/m 6,4 km/h (2 Bft) 100,00 %
24.02.2019 23:30 7,7 C 6,7 C 5,0 C 52 % 1035,5 hPa 0,0 l/m 0 min 0 min 0 W/m 0,0 km/h (0 Bft) 100,00 %
24.02.2019 23:32 7,7 C 6,1 C 4,4 C 52 % 1035,5 hPa 0,0 l/m 0 min 0 min 0 W/m 0,0 km/h (0 Bft) 95,74 %
24.02.2019 23:34 7,7 C 5,6 C 4,4 C 53 % 1035,5 hPa 0,0 l/m 0 min 0 min 0 W/m 0,0 km/h (0 Bft) 100,00 %
24.02.2019 23:36 7,7 C 5,6 C 3,9 C 53 % 1035,5 hPa 0,0 l/m 0 min 0 min 0 W/m 0,0 km/h (0 Bft) 100,00 %
24.02.2019 23:38 7,6 C 5,6 C 3,9 C 53 % 1035,5 hPa 0,0 l/m 0 min 0 min 0 W/m 0,0 km/h (0 Bft) 100,00 %
24.02.2019 23:40 7,6 C 5,6 C 3,9 C 53 % 1035,5 hPa 0,0 l/m 0 min 0 min 0 W/m 0,0 km/h (0 Bft) 100,00 %
24.02.2019 23:42 7,6 C 5,0 C 3,3 C 54 % 1035,4 hPa 0,0 l/m 0 min 0 min 0 W/m 0,0 km/h (0 Bft) 100,00 %
24.02.2019 23:44 7,5 C 5,0 C 3,3 C 54 % 1035,4 hPa 0,0 l/m 0 min 0 min 0 W/m 0,0 km/h (0 Bft) 100,00 %
24.02.2019 23:46 7,4 C 5,0 C 3,3 C 55 % 1035,5 hPa 0,0 l/m 0 min 0 min 0 W/m 0,0 km/h (0 Bft) 100,00 %
24.02.2019 23:48 7,4 C 5,0 C 3,3 C 55 % 1035,6 hPa 0,0 l/m 0 min 0 min 0 W/m 0,0 km/h (0 Bft) 100,00 %
24.02.2019 23:50 7,3 C 4,4 C 2,8 C 55 % 1035,5 hPa 0,0 l/m 0 min 0 min 0 W/m 0,0 km/h (0 Bft) 97,87 %
24.02.2019 23:52 7,2 C 4,4 C 2,8 C 56 % 1035,5 hPa 0,0 l/m 0 min 0 min 0 W/m 0,0 km/h (0 Bft) 100,00 %
24.02.2019 23:54 7,2 C 4,4 C 2,8 C 56 % 1035,5 hPa 0,0 l/m 0 min 0 min 0 W/m 0,0 km/h (0 Bft) 100,00 %
24.02.2019 23:56 7,1 C 4,4 C 2,8 C 56 % 1035,5 hPa 0,0 l/m 0 min 0 min 0 W/m 0,0 km/h (0 Bft) 97,87 %
24.02.2019 23:58 7,0 C 3,9 C 2,8 C 57 % 1035,6 hPa 0,0 l/m 0 min 0 min 0 W/m 0,0 km/h (0 Bft) 97,87 %
_ Min-Zeit 08:02 07:02 07:46 15:50 03:26 - - - - 16:34 16:26
Minimum _ 3,3 C 2,8 C 1,7 C 30 % 1034,4 hPa - - - - 0,0 km/h (0 Bft) 89,13 %
_ Max-Zeit 16:12 14:32 13:02 01:40 10:46 00:00 12:08 00:00 12:42 05:38 01:06
Maximum _ 15,9 C 21,7 C 20,6 C 66 % 1036,2 hPa 0,0 l/m 4 min 0 min 548 W/m 38,6 km/h
O-SO (5 Bft)
100,00 %
Durchschnitt _ 8,1 C 8,7 C 6,3 C 52 % 1035,1 hPa #0,0 l/m #7:18 h #0 min. 304 W/m 11,0 km/h (2 Bft) 97,49 %
© 2019 W. Hausmann